MAS133 WMKK-NZAA

Flight info

Callsign MAS133
Flight time 9h 24m
Altitude 37000
Route RUSBU2A RUSBU Y511 TOPOR A464 ARAMA P501 ANITO B470 PKP L511 SBR M766 BLI G326 BN J208 SCOTT A464 UPLAR
Aircraft A359/H-SDE2E3GHIJ1J3J4J5LM1ORWXY/LB1D1

Departure

Time 2026-05-05 18:20
Airport Kuala Lumpur International Airport (WMKK)

Arrival

Time 2026-05-06 03:44
Airport Auckland International Airport (NZAA)
Time Latitude Longitude Altitude Speed Heading
2026-05-05 17:56 2.74574 101.71418 79 ft 0 kts 56°
2026-05-05 18:10 2.74573 101.71417 79 ft 1 kts 56°
2026-05-05 18:10 2.74559 101.71397 84 ft 4 kts 56°
2026-05-05 18:11 2.74548 101.71379 83 ft 4 kts 56°
2026-05-05 18:11 2.74535 101.71361 83 ft 4 kts 73°
2026-05-05 18:11 2.74530 101.71354 84 ft 4 kts 128°
2026-05-05 18:11 2.74541 101.71347 83 ft 4 kts 161°
2026-05-05 18:12 2.74566 101.71338 84 ft 4 kts 153°
2026-05-05 18:12 2.74577 101.71332 84 ft 0 kts 146°
2026-05-05 18:14 2.74555 101.71347 84 ft 7 kts 146°
2026-05-05 18:15 2.74511 101.71377 89 ft 9 kts 146°
2026-05-05 18:15 2.74454 101.71415 82 ft 11 kts 147°
2026-05-05 18:15 2.74390 101.71457 84 ft 8 kts 146°
2026-05-05 18:15 2.74379 101.71504 81 ft 8 kts 74°
2026-05-05 18:16 2.74409 101.71555 82 ft 10 kts 58°
2026-05-05 18:16 2.74450 101.71617 84 ft 12 kts 55°
2026-05-05 18:16 2.74499 101.71688 83 ft 13 kts 56°
2026-05-05 18:16 2.74554 101.71770 83 ft 15 kts 56°
2026-05-05 18:17 2.74616 101.71863 85 ft 17 kts 57°
2026-05-05 18:17 2.74682 101.71963 87 ft 16 kts 56°
2026-05-05 18:17 2.74737 101.72048 91 ft 12 kts 55°
2026-05-05 18:17 2.74751 101.72067 90 ft 0 kts 54°
2026-05-05 18:18 2.74773 101.72099 88 ft 11 kts 55°
2026-05-05 18:18 2.74826 101.72176 89 ft 8 kts 53°
2026-05-05 18:18 2.74870 101.72181 86 ft 7 kts 341°
2026-05-05 18:18 2.74909 101.72158 86 ft 6 kts 328°
2026-05-05 18:19 2.75105 101.72027 88 ft 69 kts 326°
2026-05-05 18:19 2.75691 101.71632 86 ft 132 kts 326°
2026-05-05 18:19 2.76596 101.71026 96 ft 183 kts 326°
2026-05-05 18:19 2.77712 101.70291 568 ft 195 kts 327°
2026-05-05 18:20 2.78871 101.69533 1203 ft 205 kts 327°
2026-05-05 18:20 2.80223 101.68826 1500 ft 234 kts 338°
2026-05-05 18:20 2.81826 101.68218 1847 ft 256 kts 341°
2026-05-05 18:20 2.83566 101.67719 2504 ft 263 kts 351°
2026-05-05 18:21 2.85393 101.67760 3242 ft 266 kts 14°
2026-05-05 18:21 2.87021 101.68598 3978 ft 267 kts 43°
2026-05-05 18:21 2.87994 101.70133 4723 ft 268 kts 74°
2026-05-05 18:21 2.88040 101.71986 5421 ft 272 kts 104°
2026-05-05 18:22 2.87120 101.73634 6149 ft 276 kts 133°
2026-05-05 18:22 2.85709 101.74948 6835 ft 279 kts 139°
2026-05-05 18:22 2.84232 101.76225 7589 ft 282 kts 139°
2026-05-05 18:22 2.82754 101.77528 8356 ft 285 kts 138°
2026-05-05 18:23 2.81273 101.78856 9155 ft 288 kts 137°
2026-05-05 18:23 2.79779 101.80209 9923 ft 291 kts 137°
2026-05-05 18:23 2.78255 101.81598 10434 ft 305 kts 137°
2026-05-05 18:23 2.76662 101.83055 10719 ft 324 kts 137°
2026-05-05 18:24 2.74960 101.84614 11033 ft 340 kts 137°
2026-05-05 18:24 2.73190 101.86235 11542 ft 349 kts 137°
2026-05-05 18:24 2.71390 101.87884 12170 ft 353 kts 137°
2026-05-05 18:24 2.69572 101.89549 12816 ft 356 kts 136°
2026-05-05 18:25 2.67735 101.91233 13471 ft 360 kts 136°
2026-05-05 18:25 2.66510 101.92356 13853 ft 362 kts 136°
2026-05-05 18:25 2.64008 101.94648 14608 ft 366 kts 136°
2026-05-05 18:25 2.62126 101.96374 15168 ft 369 kts 136°
2026-05-05 18:26 2.60222 101.98119 15704 ft 373 kts 136°
2026-05-05 18:26 2.58305 101.99876 16239 ft 376 kts 136°
2026-05-05 18:26 2.56396 102.01625 16777 ft 378 kts 136°
2026-05-05 18:26 2.54448 102.03411 17307 ft 382 kts 136°
2026-05-05 18:27 2.52483 102.05211 17837 ft 385 kts 136°
2026-05-05 18:27 2.50501 102.07027 18305 ft 388 kts 136°
2026-05-05 18:27 2.48507 102.08855 18755 ft 391 kts 136°
2026-05-05 18:27 2.46495 102.10698 19191 ft 394 kts 136°
2026-05-05 18:28 2.42426 102.14426 20082 ft 400 kts 136°
2026-05-05 18:28 2.40395 102.16287 20520 ft 402 kts 136°
2026-05-05 18:28 2.38326 102.18183 20973 ft 405 kts 136°
2026-05-05 18:29 2.36239 102.20095 21424 ft 408 kts 136°
2026-05-05 18:29 2.34139 102.22018 21862 ft 411 kts 136°
2026-05-05 18:29 2.32023 102.23956 22318 ft 414 kts 136°
2026-05-05 18:29 2.29891 102.25908 22754 ft 417 kts 136°
2026-05-05 18:30 2.27742 102.27877 23188 ft 420 kts 136°
2026-05-05 18:30 2.25577 102.29860 23570 ft 424 kts 136°
2026-05-05 18:30 2.23428 102.31828 23900 ft 426 kts 136°
2026-05-05 18:30 2.21236 102.33835 24271 ft 429 kts 136°
2026-05-05 18:31 2.19028 102.35857 24646 ft 431 kts 136°
2026-05-05 18:31 2.17564 102.37197 24901 ft 433 kts 136°
2026-05-05 18:31 2.14368 102.40124 25487 ft 437 kts 136°
2026-05-05 18:31 2.12123 102.42180 25910 ft 439 kts 136°
2026-05-05 18:32 2.09863 102.44249 26337 ft 442 kts 136°
2026-05-05 18:32 2.07585 102.46334 26776 ft 445 kts 136°
2026-05-05 18:32 2.05298 102.48428 27206 ft 447 kts 136°
2026-05-05 18:32 2.03021 102.50558 27622 ft 450 kts 134°
2026-05-05 18:33 2.00949 102.52909 28067 ft 452 kts 128°
2026-05-05 18:33 1.98996 102.55390 28484 ft 455 kts 126°
2026-05-05 18:33 1.97091 102.57924 28890 ft 458 kts 126°
2026-05-05 18:33 1.95222 102.60455 29296 ft 460 kts 126°
2026-05-05 18:34 1.93320 102.63036 29716 ft 463 kts 126°
2026-05-05 18:34 1.91396 102.65631 30072 ft 466 kts 126°
2026-05-05 18:34 1.89452 102.68236 30393 ft 469 kts 126°
2026-05-05 18:34 1.87491 102.70851 30715 ft 471 kts 126°
2026-05-05 18:35 1.85518 102.73473 31039 ft 474 kts 126°
2026-05-05 18:35 1.83532 102.76108 31359 ft 476 kts 126°
2026-05-05 18:35 1.81532 102.78759 31673 ft 479 kts 127°
2026-05-05 18:35 1.79548 102.81390 31966 ft 481 kts 127°
2026-05-05 18:36 1.77528 102.84069 32266 ft 484 kts 127°
2026-05-05 18:36 1.75501 102.86758 32551 ft 486 kts 127°
2026-05-05 18:36 1.73587 102.89553 32824 ft 488 kts 120°
2026-05-05 18:36 1.71903 102.92502 33115 ft 490 kts 119°
2026-05-05 18:37 1.70266 102.95495 33396 ft 492 kts 118°
2026-05-05 18:37 1.68647 102.98523 33635 ft 494 kts 118°
2026-05-05 18:37 1.67579 103.00539 33796 ft 496 kts 117°
2026-05-05 18:37 1.65966 103.03591 34029 ft 498 kts 117°
2026-05-05 18:38 1.63794 103.07631 34307 ft 500 kts 120°
2026-05-05 18:38 1.61829 103.10498 34537 ft 501 kts 129°
2026-05-05 18:38 1.60260 103.12256 34738 ft 500 kts 135°
2026-05-05 18:38 1.57656 103.14484 35043 ft 499 kts 143°
2026-05-05 18:39 1.54825 103.16490 35361 ft 499 kts 145°
2026-05-05 18:39 1.51946 103.18413 35666 ft 498 kts 146°
2026-05-05 18:39 1.49043 103.20300 35934 ft 498 kts 147°
2026-05-05 18:39 1.46131 103.22176 36204 ft 497 kts 147°
2026-05-05 18:40 1.43228 103.24051 36480 ft 497 kts 147°
2026-05-05 18:40 1.40333 103.25932 36744 ft 497 kts 146°
2026-05-05 18:40 1.37444 103.27818 36845 ft 494 kts 146°
2026-05-05 18:40 1.34580 103.29695 36856 ft 490 kts 146°
2026-05-05 18:41 1.28938 103.33403 36849 ft 488 kts 146°
2026-05-05 18:41 1.23265 103.37143 36849 ft 488 kts 146°
2026-05-05 18:42 1.17611 103.40903 36844 ft 489 kts 146°
2026-05-05 18:42 1.11033 103.45281 36845 ft 489 kts 146°
2026-05-05 18:43 1.06333 103.48415 36844 ft 488 kts 145°
2026-05-05 18:43 1.01233 103.52868 36846 ft 488 kts 135°
2026-05-05 18:44 0.96479 103.57713 36847 ft 488 kts 134°
2026-05-05 18:44 0.91779 103.62610 36848 ft 488 kts 134°
2026-05-05 18:45 0.87073 103.67500 36845 ft 488 kts 134°
2026-05-05 18:45 0.82383 103.72353 36843 ft 488 kts 134°
2026-05-05 18:46 0.77665 103.77226 36849 ft 488 kts 134°
2026-05-05 18:46 0.72939 103.82106 36849 ft 488 kts 134°
2026-05-05 18:47 0.68218 103.86983 36848 ft 488 kts 134°
2026-05-05 18:47 0.63525 103.91830 36849 ft 488 kts 134°
2026-05-05 18:48 0.58805 103.96706 36849 ft 488 kts 134°
2026-05-05 18:48 0.54087 104.01583 36849 ft 488 kts 134°
2026-05-05 18:49 0.49365 104.06459 36848 ft 488 kts 134°
2026-05-05 18:49 0.44676 104.11296 36847 ft 488 kts 134°
2026-05-05 18:50 0.39957 104.16165 36851 ft 487 kts 134°
2026-05-05 18:50 0.35243 104.21031 36846 ft 487 kts 134°
2026-05-05 18:51 0.30536 104.25899 36846 ft 487 kts 134°
2026-05-05 18:51 0.25855 104.30730 36845 ft 487 kts 134°
2026-05-05 18:52 0.21143 104.35591 36843 ft 487 kts 134°
2026-05-05 18:52 0.16439 104.40446 36847 ft 486 kts 134°
2026-05-05 18:53 0.11735 104.45303 36845 ft 486 kts 134°
2026-05-05 18:53 0.07062 104.50129 36843 ft 486 kts 134°
2026-05-05 18:54 0.02365 104.54978 36846 ft 486 kts 134°
2026-05-05 18:54 -0.02332 104.59828 36845 ft 486 kts 134°
2026-05-05 18:55 -0.07029 104.64677 36846 ft 486 kts 134°
2026-05-05 18:55 -0.11725 104.69527 36847 ft 486 kts 134°
2026-05-05 18:56 -0.16393 104.74347 36845 ft 485 kts 134°
2026-05-05 18:56 -0.21089 104.79195 36846 ft 485 kts 134°
2026-05-05 18:57 -0.25782 104.84041 36845 ft 485 kts 134°
2026-05-05 18:57 -0.30918 104.88397 36848 ft 485 kts 144°
2026-05-05 18:58 -0.36427 104.92210 36846 ft 485 kts 146°
2026-05-05 18:58 -0.42025 104.95970 36849 ft 485 kts 146°
2026-05-05 18:59 -0.47625 104.99733 36847 ft 485 kts 146°
2026-05-05 18:59 -0.53213 105.03506 36843 ft 485 kts 146°
2026-05-05 19:00 -0.58799 105.07286 36843 ft 485 kts 145°
2026-05-05 19:00 -0.64348 105.11042 36846 ft 485 kts 146°
2026-05-05 19:01 -0.69933 105.14822 36844 ft 485 kts 145°
2026-05-05 19:01 -0.75521 105.18603 36843 ft 485 kts 146°
2026-05-05 19:02 -0.81103 105.22381 36842 ft 485 kts 145°
2026-05-05 19:02 -0.86654 105.26137 36846 ft 485 kts 145°
2026-05-05 19:03 -0.92246 105.29922 36843 ft 485 kts 145°
2026-05-05 19:03 -0.97842 105.33709 36842 ft 486 kts 145°
2026-05-05 19:04 -1.03437 105.37496 36842 ft 486 kts 145°
2026-05-05 19:04 -1.09000 105.41261 36847 ft 486 kts 145°
2026-05-05 19:05 -1.14600 105.45052 36845 ft 486 kts 145°
2026-05-05 19:05 -1.20204 105.48845 36845 ft 486 kts 145°
2026-05-05 19:06 -1.25808 105.52639 36850 ft 486 kts 145°
2026-05-05 19:06 -1.31411 105.56432 36848 ft 486 kts 145°
2026-05-05 19:07 -1.37015 105.60226 36853 ft 487 kts 145°
2026-05-05 19:07 -1.42586 105.63998 36850 ft 487 kts 145°
2026-05-05 19:08 -1.48191 105.67793 36852 ft 487 kts 145°
2026-05-05 19:08 -1.53803 105.71593 36850 ft 487 kts 145°
2026-05-05 19:09 -1.59420 105.75397 36851 ft 488 kts 145°
2026-05-05 19:09 -1.65002 105.79177 36852 ft 488 kts 145°
2026-05-05 19:10 -1.70621 105.82983 36854 ft 488 kts 145°
2026-05-05 19:10 -1.76233 105.86784 36854 ft 488 kts 145°
2026-05-05 19:11 -1.81853 105.90591 36854 ft 488 kts 145°
2026-05-05 19:11 -1.87467 105.94394 36852 ft 488 kts 145°
2026-05-05 19:12 -1.93048 105.98175 36851 ft 488 kts 145°
2026-05-05 19:12 -1.98666 106.01982 36852 ft 488 kts 145°
2026-05-05 19:13 -2.04286 106.05790 36852 ft 488 kts 145°
2026-05-05 19:13 -2.09902 106.09595 36850 ft 488 kts 145°
2026-05-05 19:14 -2.15405 106.13474 36853 ft 487 kts 139°
2026-05-05 19:14 -2.20021 106.18394 36851 ft 486 kts 128°
2026-05-05 19:15 -2.24215 106.23695 36849 ft 486 kts 127°
2026-05-05 19:15 -2.28346 106.29044 36850 ft 486 kts 127°
2026-05-05 19:16 -2.32486 106.34380 36849 ft 486 kts 127°
2026-05-05 19:16 -2.36611 106.39665 36851 ft 485 kts 127°
2026-05-05 19:17 -2.40768 106.44981 36852 ft 485 kts 127°
2026-05-05 19:17 -2.44923 106.50295 36850 ft 485 kts 127°
2026-05-05 19:18 -2.49074 106.55606 36851 ft 485 kts 127°
2026-05-05 19:18 -2.53223 106.60916 36849 ft 485 kts 127°
2026-05-05 19:19 -2.57349 106.66197 36848 ft 485 kts 127°
2026-05-05 19:19 -2.61493 106.71503 36848 ft 484 kts 127°
2026-05-05 19:20 -2.65641 106.76812 36849 ft 484 kts 127°
2026-05-05 19:20 -2.69785 106.82119 36848 ft 484 kts 128°
2026-05-05 19:21 -2.73904 106.87393 36845 ft 484 kts 128°
2026-05-05 19:21 -2.78052 106.92705 36843 ft 484 kts 128°
2026-05-05 19:22 -2.82196 106.98013 36848 ft 484 kts 128°
2026-05-05 19:22 -2.86341 107.03322 36848 ft 484 kts 128°
2026-05-05 19:23 -2.90461 107.08601 36845 ft 484 kts 128°
2026-05-05 19:23 -2.94611 107.13918 36843 ft 485 kts 128°
2026-05-05 19:24 -2.98758 107.19234 36844 ft 485 kts 127°
2026-05-05 19:24 -3.02902 107.24546 36844 ft 485 kts 128°
2026-05-05 19:25 -3.07021 107.29825 36845 ft 484 kts 128°
2026-05-05 19:25 -3.11167 107.35141 36845 ft 484 kts 127°
2026-05-05 19:26 -3.15307 107.40450 36838 ft 484 kts 127°
2026-05-05 19:26 -3.19445 107.45757 36840 ft 483 kts 128°
2026-05-05 19:27 -3.23571 107.51049 36840 ft 482 kts 127°
2026-05-05 19:27 -3.27668 107.56304 36840 ft 482 kts 127°
2026-05-05 19:28 -3.31788 107.61592 36841 ft 482 kts 127°
2026-05-05 19:28 -3.35917 107.66867 36841 ft 481 kts 128°
2026-05-05 19:29 -3.40075 107.72118 36842 ft 482 kts 128°
2026-05-05 19:29 -3.44208 107.77340 36839 ft 482 kts 128°
2026-05-05 19:30 -3.48369 107.82609 36842 ft 483 kts 128°
2026-05-05 19:30 -3.52528 107.87882 36844 ft 483 kts 128°
2026-05-05 19:31 -3.56694 107.93166 36844 ft 483 kts 128°
2026-05-05 19:31 -3.60833 107.98416 36842 ft 484 kts 128°
2026-05-05 19:32 -3.65001 108.03703 36843 ft 484 kts 128°
2026-05-05 19:32 -3.69167 108.08987 36844 ft 484 kts 128°
2026-05-05 19:33 -3.73335 108.14276 36843 ft 484 kts 128°
2026-05-05 19:33 -3.77501 108.19562 36843 ft 483 kts 128°
2026-05-05 19:34 -3.81637 108.24812 36843 ft 483 kts 128°
2026-05-05 19:35 -3.87886 108.32745 36844 ft 484 kts 128°
2026-05-05 19:35 -3.92052 108.38035 36842 ft 484 kts 128°
2026-05-05 19:36 -3.96216 108.43324 36845 ft 484 kts 128°
2026-05-05 19:36 -4.00355 108.48580 36842 ft 484 kts 128°
2026-05-05 19:37 -4.04524 108.53877 36844 ft 484 kts 128°
2026-05-05 19:37 -4.08692 108.59174 36844 ft 484 kts 128°
2026-05-05 19:38 -4.12859 108.64470 36843 ft 484 kts 128°
2026-05-05 19:38 -4.17002 108.69737 36843 ft 484 kts 127°
2026-05-05 19:39 -4.21170 108.75038 36845 ft 484 kts 128°
2026-05-05 19:39 -4.25335 108.80333 36844 ft 484 kts 127°
2026-05-05 19:40 -4.29503 108.85634 36843 ft 484 kts 128°
2026-05-05 19:40 -4.33633 108.90890 36843 ft 483 kts 128°
2026-05-05 19:41 -4.37792 108.96184 36843 ft 483 kts 128°
2026-05-05 19:41 -4.41949 109.01474 36843 ft 483 kts 128°
2026-05-05 19:42 -4.46112 109.06772 36843 ft 483 kts 127°
2026-05-05 19:42 -4.50270 109.12066 36842 ft 484 kts 127°
2026-05-05 19:43 -4.54406 109.17333 36843 ft 484 kts 127°
2026-05-05 19:43 -4.58579 109.22647 36846 ft 485 kts 127°
2026-05-05 19:44 -4.62751 109.27964 36843 ft 485 kts 127°
2026-05-05 19:44 -4.66926 109.33283 36849 ft 486 kts 127°
2026-05-05 19:45 -4.71076 109.38573 36848 ft 486 kts 127°
2026-05-05 19:45 -4.75262 109.43910 36842 ft 487 kts 127°
2026-05-05 19:46 -4.79446 109.49245 36845 ft 487 kts 127°
2026-05-05 19:46 -4.83630 109.54582 36842 ft 487 kts 127°
2026-05-05 19:47 -4.87792 109.59890 36847 ft 487 kts 127°
2026-05-05 19:47 -4.91978 109.65231 36846 ft 487 kts 127°
2026-05-05 19:48 -4.96163 109.70573 36847 ft 487 kts 127°
2026-05-05 19:48 -5.00344 109.75909 36845 ft 487 kts 127°
2026-05-05 19:49 -5.04502 109.81217 36846 ft 487 kts 127°
2026-05-05 19:49 -5.08682 109.86556 36847 ft 487 kts 127°
2026-05-05 19:50 -5.12865 109.91900 36847 ft 487 kts 127°
2026-05-05 19:50 -5.17053 109.97252 36846 ft 488 kts 127°
2026-05-05 19:51 -5.21212 110.02568 36845 ft 488 kts 127°
2026-05-05 19:51 -5.25397 110.07918 36845 ft 487 kts 127°
2026-05-05 19:52 -5.29581 110.13269 36845 ft 488 kts 127°
2026-05-05 19:52 -5.33772 110.18627 36846 ft 488 kts 127°
2026-05-05 19:53 -5.37963 110.23989 36847 ft 488 kts 127°
2026-05-05 19:53 -5.42123 110.29314 36848 ft 488 kts 127°
2026-05-05 19:54 -5.46312 110.34676 36850 ft 488 kts 127°
2026-05-05 19:54 -5.50515 110.40040 36851 ft 489 kts 128°
2026-05-05 19:55 -5.54749 110.45368 36849 ft 489 kts 128°
2026-05-05 19:55 -5.58967 110.50668 36848 ft 489 kts 128°
2026-05-05 19:56 -5.63196 110.55998 36850 ft 488 kts 128°
2026-05-05 19:56 -5.67427 110.61337 36853 ft 488 kts 128°
2026-05-05 19:57 -5.71651 110.66671 36852 ft 488 kts 128°
2026-05-05 19:57 -5.75879 110.72010 36855 ft 488 kts 128°
2026-05-05 19:58 -5.80075 110.77309 36853 ft 488 kts 128°
2026-05-05 19:58 -5.84304 110.82652 36855 ft 488 kts 128°
2026-05-05 19:59 -5.88530 110.87992 36857 ft 488 kts 128°
2026-05-05 19:59 -5.92755 110.93334 36854 ft 488 kts 128°
2026-05-05 20:00 -5.96957 110.98647 36850 ft 489 kts 128°
2026-05-05 20:00 -6.01183 111.03993 36854 ft 489 kts 128°
2026-05-05 20:01 -6.05411 111.09341 36859 ft 489 kts 128°
2026-05-05 20:01 -6.09641 111.14694 36851 ft 489 kts 128°
2026-05-05 20:02 -6.13842 111.20012 36854 ft 489 kts 128°
2026-05-05 20:02 -6.18074 111.25371 36856 ft 489 kts 128°
2026-05-05 20:03 -6.22304 111.30728 36856 ft 489 kts 128°
2026-05-05 20:03 -6.26534 111.36088 36858 ft 489 kts 128°
2026-05-05 20:04 -6.30735 111.41412 36857 ft 490 kts 128°
2026-05-05 20:04 -6.34968 111.46778 36856 ft 490 kts 128°
2026-05-05 20:05 -6.39204 111.52149 36856 ft 490 kts 128°
2026-05-05 20:05 -6.43433 111.57513 36857 ft 489 kts 128°
2026-05-05 20:06 -6.47629 111.62837 36858 ft 489 kts 128°
2026-05-05 20:06 -6.51848 111.68192 36861 ft 488 kts 129°
2026-05-05 20:07 -6.56066 111.73548 36861 ft 488 kts 129°
2026-05-05 20:07 -6.60285 111.78907 36852 ft 488 kts 129°
2026-05-05 20:08 -6.64471 111.84224 36860 ft 488 kts 129°
2026-05-05 20:08 -6.68682 111.89575 36859 ft 488 kts 129°
2026-05-05 20:09 -6.72891 111.94925 36865 ft 488 kts 129°
2026-05-05 20:09 -6.77103 112.00280 36866 ft 487 kts 129°
2026-05-05 20:10 -6.81278 112.05590 36864 ft 487 kts 129°
2026-05-05 20:10 -6.85479 112.10936 36865 ft 487 kts 129°
2026-05-05 20:11 -6.89677 112.16279 36865 ft 487 kts 129°
2026-05-05 20:11 -6.93876 112.21624 36863 ft 487 kts 129°
2026-05-05 20:12 -6.98073 112.26969 36865 ft 487 kts 129°
2026-05-05 20:12 -7.02246 112.32286 36869 ft 487 kts 129°
2026-05-05 20:13 -7.06445 112.37636 36867 ft 487 kts 129°
2026-05-05 20:13 -7.10643 112.42989 36868 ft 487 kts 129°
2026-05-05 20:14 -7.14842 112.48342 36869 ft 487 kts 129°
2026-05-05 20:14 -7.19009 112.53659 36871 ft 487 kts 129°
2026-05-05 20:15 -7.23211 112.59021 36874 ft 487 kts 129°
2026-05-05 20:15 -7.27403 112.64371 36879 ft 487 kts 129°
2026-05-05 20:16 -7.31603 112.69734 36880 ft 487 kts 129°
2026-05-05 20:16 -7.35765 112.75051 36886 ft 487 kts 129°
2026-05-05 20:17 -7.39487 112.80751 36882 ft 488 kts 122°
2026-05-05 20:17 -7.42927 112.86643 36882 ft 488 kts 121°
2026-05-05 20:18 -7.46324 112.92562 36883 ft 488 kts 121°
2026-05-05 20:18 -7.49702 112.98439 36879 ft 488 kts 121°
2026-05-05 20:19 -7.53107 113.04346 36880 ft 488 kts 121°
2026-05-05 20:19 -7.56517 113.10257 36875 ft 488 kts 121°
2026-05-05 20:20 -7.59926 113.16166 36880 ft 487 kts 121°
2026-05-05 20:20 -7.63329 113.22071 36882 ft 487 kts 121°
2026-05-05 20:21 -7.66713 113.27943 36887 ft 487 kts 121°
2026-05-05 20:21 -7.70118 113.33854 36890 ft 487 kts 121°
2026-05-05 20:22 -7.73518 113.39760 36893 ft 487 kts 121°
2026-05-05 20:22 -7.76918 113.45668 36901 ft 487 kts 121°
2026-05-05 20:23 -7.80298 113.51543 36905 ft 487 kts 121°
2026-05-05 20:23 -7.83698 113.57457 36907 ft 487 kts 121°
2026-05-05 20:24 -7.87098 113.63372 36911 ft 487 kts 122°
2026-05-05 20:24 -7.90497 113.69287 36915 ft 487 kts 121°
2026-05-05 20:25 -7.93891 113.75197 36922 ft 487 kts 122°
2026-05-05 20:25 -7.97264 113.81074 36929 ft 487 kts 122°
2026-05-05 20:26 -8.00655 113.86983 36929 ft 487 kts 122°
2026-05-05 20:26 -8.04048 113.92899 36935 ft 487 kts 122°
2026-05-05 20:27 -8.07461 113.98804 36938 ft 487 kts 122°
2026-05-05 20:27 -8.10852 114.04661 36935 ft 487 kts 122°
2026-05-05 20:28 -8.14263 114.10564 36932 ft 487 kts 122°
2026-05-05 20:28 -8.17671 114.16471 36930 ft 487 kts 122°
2026-05-05 20:29 -8.21077 114.22379 36924 ft 487 kts 122°
2026-05-05 20:29 -8.24481 114.28285 36919 ft 487 kts 122°
2026-05-05 20:30 -8.27867 114.34162 36915 ft 487 kts 122°
2026-05-05 20:30 -8.31271 114.40075 36912 ft 487 kts 122°
2026-05-05 20:31 -8.34675 114.45988 36907 ft 487 kts 122°
2026-05-05 20:31 -8.38079 114.51904 36901 ft 487 kts 122°
2026-05-05 20:32 -8.41460 114.57783 36896 ft 487 kts 122°
2026-05-05 20:32 -8.44862 114.63701 36898 ft 487 kts 122°
2026-05-05 20:33 -8.48266 114.69624 36898 ft 487 kts 122°
2026-05-05 20:33 -8.51665 114.75542 36899 ft 487 kts 122°
2026-05-05 20:34 -8.55043 114.81427 36899 ft 487 kts 122°
2026-05-05 20:34 -8.58441 114.87347 36898 ft 487 kts 122°
2026-05-05 20:35 -8.61840 114.93273 36895 ft 487 kts 122°
2026-05-05 20:35 -8.65236 114.99196 36892 ft 487 kts 122°
2026-05-05 20:36 -8.68606 115.05077 36885 ft 487 kts 122°
2026-05-05 20:36 -8.71999 115.11000 36883 ft 487 kts 122°
2026-05-05 20:37 -8.75394 115.16930 36885 ft 487 kts 122°
2026-05-05 20:37 -8.78851 115.22808 36884 ft 486 kts 123°
2026-05-05 20:38 -8.82378 115.28651 36885 ft 486 kts 123°
2026-05-05 20:38 -8.85866 115.34453 36885 ft 486 kts 123°
2026-05-05 20:39 -8.89363 115.40306 36886 ft 486 kts 123°
2026-05-05 20:39 -8.92853 115.46162 36887 ft 486 kts 123°
2026-05-05 20:40 -8.96341 115.52017 36893 ft 486 kts 123°
2026-05-05 20:40 -8.99812 115.57846 36891 ft 486 kts 123°
2026-05-05 20:41 -9.03301 115.63707 36888 ft 486 kts 123°
2026-05-05 20:41 -9.06788 115.69568 36892 ft 486 kts 123°
2026-05-05 20:42 -9.10276 115.75432 36892 ft 486 kts 123°
2026-05-05 20:42 -9.13736 115.81252 36893 ft 486 kts 123°
2026-05-05 20:43 -9.17223 115.87120 36892 ft 486 kts 123°
2026-05-05 20:43 -9.20708 115.92988 36893 ft 486 kts 123°
2026-05-05 20:44 -9.24195 115.98862 36891 ft 487 kts 123°
2026-05-05 20:44 -9.27653 116.04690 36890 ft 487 kts 123°
2026-05-05 20:45 -9.32880 116.13503 36891 ft 487 kts 123°
2026-05-05 20:45 -9.36366 116.19385 36892 ft 487 kts 123°
2026-05-05 20:46 -9.39825 116.25224 36892 ft 487 kts 123°
2026-05-05 20:46 -9.43308 116.31107 36891 ft 487 kts 123°
2026-05-05 20:47 -9.46791 116.36991 36890 ft 487 kts 123°
2026-05-05 20:47 -9.50275 116.42881 36891 ft 487 kts 123°
2026-05-05 20:48 -9.53736 116.48735 36895 ft 487 kts 123°
2026-05-05 20:48 -9.57217 116.54626 36896 ft 487 kts 123°
2026-05-05 20:49 -9.60698 116.60518 36897 ft 487 kts 123°
2026-05-05 20:49 -9.64181 116.66418 36899 ft 487 kts 123°
2026-05-05 20:50 -9.67072 116.71317 36895 ft 488 kts 123°
2026-05-05 20:50 -9.71117 116.78174 36896 ft 488 kts 123°
2026-05-05 20:51 -9.74594 116.84075 36895 ft 488 kts 123°
2026-05-05 20:51 -9.78086 116.89970 36891 ft 488 kts 123°
2026-05-05 20:52 -9.81588 116.95864 36893 ft 488 kts 123°
2026-05-05 20:52 -9.85061 117.01715 36894 ft 488 kts 123°
2026-05-05 20:53 -9.88555 117.07611 36898 ft 488 kts 123°
2026-05-05 20:53 -9.92048 117.13511 36897 ft 488 kts 123°
2026-05-05 20:54 -9.95537 117.19407 36896 ft 488 kts 123°
2026-05-05 20:54 -9.99007 117.25273 36899 ft 488 kts 123°
2026-05-05 20:55 -10.02494 117.31172 36898 ft 488 kts 123°
2026-05-05 20:55 -10.05958 117.37102 36894 ft 488 kts 123°
2026-05-05 20:56 -10.09316 117.43102 36896 ft 489 kts 122°
2026-05-05 20:56 -10.12660 117.49110 36900 ft 489 kts 122°
2026-05-05 20:57 -10.15996 117.55071 36900 ft 489 kts 122°
2026-05-05 20:57 -10.19360 117.61064 36897 ft 489 kts 122°
2026-05-05 20:58 -10.22730 117.67066 36898 ft 489 kts 122°
2026-05-05 20:58 -10.26098 117.73068 36903 ft 489 kts 122°
2026-05-05 20:59 -10.29464 117.79073 36902 ft 489 kts 122°
2026-05-05 20:59 -10.32804 117.85033 36904 ft 489 kts 122°
2026-05-05 21:00 -10.36172 117.91047 36907 ft 490 kts 122°
2026-05-05 21:00 -10.39535 117.97056 36908 ft 490 kts 123°
2026-05-05 21:01 -10.42903 118.03075 36903 ft 490 kts 122°
2026-05-05 21:01 -10.46244 118.09052 36903 ft 490 kts 122°
2026-05-05 21:02 -10.49605 118.15066 36900 ft 490 kts 122°
2026-05-05 21:02 -10.52965 118.21082 36907 ft 490 kts 122°
2026-05-05 21:03 -10.56323 118.27099 36903 ft 490 kts 122°
2026-05-05 21:03 -10.59660 118.33079 36909 ft 490 kts 122°
2026-05-05 21:04 -10.63018 118.39103 36903 ft 489 kts 123°
2026-05-05 21:04 -10.66375 118.45127 36908 ft 489 kts 123°
2026-05-05 21:05 -10.69727 118.51147 36908 ft 489 kts 123°
2026-05-05 21:05 -10.73056 118.57127 36909 ft 489 kts 123°
2026-05-05 21:06 -10.76409 118.63154 36910 ft 490 kts 123°
2026-05-05 21:06 -10.79761 118.69183 36914 ft 490 kts 123°
2026-05-05 21:07 -10.82547 118.74197 36909 ft 490 kts 123°
2026-05-05 21:07 -10.86462 118.81245 36908 ft 490 kts 123°
2026-05-05 21:08 -10.89790 118.87242 36911 ft 490 kts 123°
2026-05-05 21:08 -10.93139 118.93279 36912 ft 490 kts 122°
2026-05-05 21:09 -10.96485 118.99316 36911 ft 490 kts 122°
2026-05-05 21:09 -10.99832 119.05357 36909 ft 490 kts 123°
2026-05-05 21:10 -11.03154 119.11355 36915 ft 490 kts 122°
2026-05-05 21:10 -11.06497 119.17396 36915 ft 490 kts 123°
2026-05-05 21:11 -11.09838 119.23436 36913 ft 490 kts 122°
2026-05-05 21:11 -11.12616 119.28463 36914 ft 490 kts 123°
2026-05-05 21:12 -11.16503 119.35497 36915 ft 490 kts 123°
2026-05-05 21:12 -11.19303 119.40569 36914 ft 490 kts 123°
2026-05-05 21:13 -11.23186 119.47606 36915 ft 491 kts 123°
2026-05-05 21:13 -11.26531 119.53671 36915 ft 491 kts 123°
2026-05-05 21:14 -11.29852 119.59699 36910 ft 491 kts 123°
2026-05-05 21:14 -11.32629 119.64739 36913 ft 491 kts 123°
2026-05-05 21:15 -11.35969 119.70805 36914 ft 491 kts 123°
2026-05-05 21:15 -11.39313 119.76884 36916 ft 491 kts 123°
2026-05-05 21:16 -11.42654 119.82960 36912 ft 492 kts 123°
2026-05-05 21:16 -11.45999 119.89047 36910 ft 492 kts 123°
2026-05-05 21:17 -11.49321 119.95096 36914 ft 492 kts 123°
2026-05-05 21:17 -11.52664 120.01187 36916 ft 493 kts 123°
2026-05-05 21:18 -11.56012 120.07291 36915 ft 493 kts 123°
2026-05-05 21:18 -11.59358 120.13395 36916 ft 493 kts 123°
2026-05-05 21:19 -11.62684 120.19464 36920 ft 494 kts 123°
2026-05-05 21:19 -11.66033 120.25582 36918 ft 494 kts 123°
2026-05-05 21:20 -11.69379 120.31698 36919 ft 494 kts 123°
2026-05-05 21:20 -11.72729 120.37823 36920 ft 494 kts 123°
2026-05-05 21:21 -11.76079 120.43954 36916 ft 495 kts 123°
2026-05-05 21:21 -11.79406 120.50047 36920 ft 495 kts 123°
2026-05-05 21:22 -11.82756 120.56186 36920 ft 495 kts 123°
2026-05-05 21:22 -11.86106 120.62327 36922 ft 495 kts 123°
2026-05-05 21:23 -11.89455 120.68472 36921 ft 495 kts 123°
2026-05-05 21:23 -11.92802 120.74616 36922 ft 495 kts 123°
2026-05-05 21:24 -11.96130 120.80730 36922 ft 496 kts 123°
2026-05-05 21:24 -11.99478 120.86885 36923 ft 496 kts 123°
2026-05-05 21:25 -12.02993 120.92929 36922 ft 493 kts 127°
2026-05-05 21:25 -12.06818 120.98737 36923 ft 493 kts 128°
2026-05-05 21:26 -12.10622 121.04510 36924 ft 493 kts 128°
2026-05-05 21:26 -12.14394 121.10362 36926 ft 494 kts 127°
2026-05-05 21:27 -12.18145 121.16245 36925 ft 494 kts 127°
2026-05-05 21:27 -12.21888 121.22127 36927 ft 494 kts 127°
2026-05-05 21:28 -12.25635 121.28014 36928 ft 494 kts 127°
2026-05-05 21:28 -12.29359 121.33863 36928 ft 494 kts 127°
2026-05-05 21:29 -12.33104 121.39749 36930 ft 494 kts 127°
2026-05-05 21:29 -12.36852 121.45644 36930 ft 494 kts 127°
2026-05-05 21:30 -12.40600 121.51542 36928 ft 495 kts 127°
2026-05-05 21:30 -12.44324 121.57407 36932 ft 495 kts 127°
2026-05-05 21:31 -12.48072 121.63313 36928 ft 495 kts 127°
2026-05-05 21:31 -12.51819 121.69220 36930 ft 495 kts 127°
2026-05-05 21:32 -12.55570 121.75138 36936 ft 495 kts 127°
2026-05-05 21:32 -12.59319 121.81056 36936 ft 495 kts 127°
2026-05-05 21:33 -12.63039 121.86934 36933 ft 496 kts 127°
2026-05-05 21:33 -12.66787 121.92859 36932 ft 496 kts 127°
2026-05-05 21:34 -12.70538 121.98791 36935 ft 496 kts 127°
2026-05-05 21:34 -12.74262 122.04686 36934 ft 496 kts 127°
2026-05-05 21:35 -12.78006 122.10616 36935 ft 496 kts 127°
2026-05-05 21:35 -12.81756 122.16558 36934 ft 496 kts 127°
2026-05-05 21:36 -12.85505 122.22504 36935 ft 497 kts 127°
2026-05-05 21:36 -12.89251 122.28448 36930 ft 497 kts 127°
2026-05-05 21:37 -12.92972 122.34357 36938 ft 497 kts 127°
2026-05-05 21:37 -12.96719 122.40312 36940 ft 497 kts 127°
2026-05-05 21:38 -13.00461 122.46261 36944 ft 497 kts 127°
2026-05-05 21:38 -13.04204 122.52216 36945 ft 497 kts 127°
2026-05-05 21:39 -13.07924 122.58139 36933 ft 497 kts 127°
2026-05-05 21:39 -13.11666 122.64101 36928 ft 497 kts 127°
2026-05-05 21:40 -13.15411 122.70071 36933 ft 497 kts 127°
2026-05-05 21:40 -13.19150 122.76037 36937 ft 498 kts 127°
2026-05-05 21:41 -13.22895 122.82015 36942 ft 498 kts 127°
2026-05-05 21:41 -13.26612 122.87953 36954 ft 498 kts 127°
2026-05-05 21:42 -13.30356 122.93938 36953 ft 498 kts 127°
2026-05-05 21:42 -13.34099 122.99926 36936 ft 498 kts 127°
2026-05-05 21:43 -13.37817 123.05878 36943 ft 498 kts 127°
2026-05-05 21:43 -13.41555 123.11865 36947 ft 499 kts 127°
2026-05-05 21:44 -13.45298 123.17866 36943 ft 499 kts 127°
2026-05-05 21:44 -13.49037 123.23864 36944 ft 499 kts 127°
2026-05-05 21:45 -13.52776 123.29866 36943 ft 499 kts 127°
2026-05-05 21:45 -13.56491 123.35833 36946 ft 499 kts 127°
2026-05-05 21:46 -13.60228 123.41841 36947 ft 499 kts 127°
2026-05-05 21:46 -13.63963 123.47848 36946 ft 499 kts 127°
2026-05-05 21:47 -13.67673 123.53820 36946 ft 499 kts 127°
2026-05-05 21:47 -13.71407 123.59835 36948 ft 499 kts 127°
2026-05-05 21:48 -13.75139 123.65851 36950 ft 499 kts 127°
2026-05-05 21:48 -13.78878 123.71882 36949 ft 499 kts 127°
2026-05-05 21:49 -13.82611 123.77907 36951 ft 500 kts 127°
2026-05-05 21:49 -13.86318 123.83897 36951 ft 500 kts 127°
2026-05-05 21:50 -13.90053 123.89934 36953 ft 500 kts 127°
2026-05-05 21:50 -13.93782 123.95966 36953 ft 500 kts 127°
2026-05-05 21:51 -13.97514 124.02009 36952 ft 500 kts 127°
2026-05-05 21:51 -14.01222 124.08017 36951 ft 500 kts 127°
2026-05-05 21:52 -14.06814 124.17084 36952 ft 500 kts 127°
2026-05-05 21:53 -14.10545 124.23139 36954 ft 500 kts 127°
2026-05-05 21:53 -14.14250 124.29156 36955 ft 501 kts 127°
2026-05-05 21:54 -14.17977 124.35215 36958 ft 501 kts 127°
2026-05-05 21:54 -14.21705 124.41279 36960 ft 501 kts 127°
2026-05-05 21:55 -14.25433 124.47347 36958 ft 501 kts 127°
2026-05-05 21:55 -14.29161 124.53420 36959 ft 501 kts 127°
2026-05-05 21:56 -14.32861 124.59452 36965 ft 501 kts 127°
2026-05-05 21:56 -14.36590 124.65535 36964 ft 502 kts 127°
2026-05-05 21:57 -14.40316 124.71619 36967 ft 502 kts 127°
2026-05-05 21:57 -14.44044 124.77709 36965 ft 502 kts 127°
2026-05-05 21:58 -14.47742 124.83756 36968 ft 502 kts 127°
2026-05-05 21:58 -14.51469 124.89856 36966 ft 502 kts 127°
2026-05-05 21:59 -14.55195 124.95957 36970 ft 502 kts 127°
2026-05-05 21:59 -14.58921 125.02063 36971 ft 502 kts 127°
2026-05-05 22:00 -14.62616 125.08124 36966 ft 503 kts 127°
2026-05-05 22:00 -14.66338 125.14234 36976 ft 503 kts 127°
2026-05-05 22:01 -14.70061 125.20348 36981 ft 503 kts 127°
2026-05-05 22:01 -14.73782 125.26471 36977 ft 503 kts 127°
2026-05-05 22:02 -14.77476 125.32556 36978 ft 503 kts 127°
2026-05-05 22:02 -14.81191 125.38681 36979 ft 503 kts 127°
2026-05-05 22:03 -14.84905 125.44807 36985 ft 503 kts 126°
2026-05-05 22:03 -14.88614 125.50932 36989 ft 503 kts 126°
2026-05-05 22:04 -14.92301 125.57022 36990 ft 503 kts 126°
2026-05-05 22:04 -14.96011 125.63156 36994 ft 503 kts 126°
2026-05-05 22:05 -14.99720 125.69293 36995 ft 503 kts 126°
2026-05-05 22:05 -15.03429 125.75437 37001 ft 503 kts 126°
2026-05-05 22:06 -15.07132 125.81574 37000 ft 503 kts 126°
2026-05-05 22:06 -15.10813 125.87681 36999 ft 503 kts 126°
2026-05-05 22:07 -15.14514 125.93825 37005 ft 503 kts 126°
2026-05-05 22:07 -15.18215 125.99972 37011 ft 503 kts 126°
2026-05-05 22:08 -15.21914 126.06123 37011 ft 503 kts 126°
2026-05-05 22:08 -15.25609 126.12271 37015 ft 503 kts 126°
2026-05-05 22:09 -15.29280 126.18386 37019 ft 503 kts 126°
2026-05-05 22:09 -15.32973 126.24541 37018 ft 503 kts 126°
2026-05-05 22:10 -15.36664 126.30698 37021 ft 503 kts 126°
2026-05-05 22:10 -15.40351 126.36853 37023 ft 503 kts 126°
2026-05-05 22:11 -15.44038 126.43013 37025 ft 503 kts 126°
2026-05-05 22:11 -15.47698 126.49134 37027 ft 503 kts 126°
2026-05-05 22:12 -15.51381 126.55297 37025 ft 503 kts 126°
2026-05-05 22:12 -15.55065 126.61467 37021 ft 503 kts 126°
2026-05-05 22:13 -15.58753 126.67648 37030 ft 504 kts 126°
2026-05-05 22:13 -15.62411 126.73786 37023 ft 504 kts 126°
2026-05-05 22:14 -15.66095 126.79972 37036 ft 504 kts 126°
2026-05-05 22:14 -15.69779 126.86161 37035 ft 504 kts 126°
2026-05-05 22:15 -15.73463 126.92358 37034 ft 504 kts 126°
2026-05-05 22:15 -15.77145 126.98556 37027 ft 504 kts 126°
2026-05-05 22:16 -15.80800 127.04714 37025 ft 505 kts 126°
2026-05-05 22:16 -15.84482 127.10921 37040 ft 505 kts 126°
2026-05-05 22:17 -15.88163 127.17133 37034 ft 505 kts 126°
2026-05-05 22:17 -15.91840 127.23344 37033 ft 505 kts 126°
2026-05-05 22:18 -15.95518 127.29561 37047 ft 505 kts 126°
2026-05-05 22:18 -15.99172 127.35743 37047 ft 505 kts 126°
2026-05-05 22:19 -16.02846 127.41964 37041 ft 505 kts 126°
2026-05-05 22:19 -16.06523 127.48196 37036 ft 505 kts 126°
2026-05-05 22:20 -16.10198 127.54428 37037 ft 506 kts 126°
2026-05-05 22:20 -16.13846 127.60621 37043 ft 506 kts 126°
2026-05-05 22:21 -16.17519 127.66862 37046 ft 506 kts 126°
2026-05-05 22:21 -16.21196 127.73114 37048 ft 506 kts 126°
2026-05-05 22:22 -16.24867 127.79362 37049 ft 506 kts 126°
2026-05-05 22:22 -16.28516 127.85580 37051 ft 507 kts 126°
2026-05-05 22:23 -16.32189 127.91841 37052 ft 507 kts 126°
2026-05-05 22:23 -16.35862 127.98109 37054 ft 507 kts 126°
2026-05-05 22:24 -16.39531 128.04377 37052 ft 507 kts 126°
2026-05-05 22:24 -16.43177 128.10609 37053 ft 507 kts 126°
2026-05-05 22:25 -16.46845 128.16884 37057 ft 507 kts 126°
2026-05-05 22:25 -16.50510 128.23159 37058 ft 507 kts 126°
2026-05-05 22:26 -16.54175 128.29442 37061 ft 507 kts 126°
2026-05-05 22:26 -16.57838 128.35727 37061 ft 507 kts 126°
2026-05-05 22:27 -16.61474 128.41971 37065 ft 507 kts 126°
2026-05-05 22:27 -16.65115 128.48285 37062 ft 508 kts 125°
2026-05-05 22:28 -16.68608 128.54693 37062 ft 509 kts 124°
2026-05-05 22:28 -16.72079 128.61131 37068 ft 509 kts 124°
2026-05-05 22:29 -16.75545 128.67512 37081 ft 509 kts 123°
2026-05-05 22:29 -16.79061 128.73952 37070 ft 512 kts 123°
2026-05-05 22:30 -16.82590 128.80423 37075 ft 513 kts 123°
2026-05-05 22:30 -16.86117 128.86899 37074 ft 513 kts 123°
2026-05-05 22:31 -16.89641 128.93376 37076 ft 514 kts 123°
2026-05-05 22:31 -16.93144 128.99819 37077 ft 514 kts 123°
2026-05-05 22:32 -16.96675 129.06320 37080 ft 514 kts 123°
2026-05-05 22:32 -17.00203 129.12820 37081 ft 515 kts 123°
2026-05-05 22:33 -17.03730 129.19328 37081 ft 515 kts 123°
2026-05-05 22:33 -17.07236 129.25800 37082 ft 515 kts 123°
2026-05-05 22:34 -17.10765 129.32323 37082 ft 516 kts 123°
2026-05-05 22:34 -17.14295 129.38852 37085 ft 516 kts 123°
2026-05-05 22:35 -17.17825 129.45389 37085 ft 516 kts 123°
2026-05-05 22:35 -17.21354 129.51932 37089 ft 517 kts 123°
2026-05-05 22:36 -17.24863 129.58441 37094 ft 517 kts 123°
2026-05-05 22:36 -17.28396 129.65003 37091 ft 517 kts 123°
2026-05-05 22:37 -17.31929 129.71570 37099 ft 518 kts 123°
2026-05-05 22:37 -17.35437 129.78096 37101 ft 518 kts 123°
2026-05-05 22:38 -17.38965 129.84668 37108 ft 518 kts 123°
2026-05-05 22:38 -17.42497 129.91256 37108 ft 518 kts 123°
2026-05-05 22:39 -17.46026 129.97842 37113 ft 519 kts 123°
2026-05-05 22:39 -17.49531 130.04388 37115 ft 519 kts 123°
2026-05-05 22:40 -17.53061 130.10989 37115 ft 519 kts 123°
2026-05-05 22:40 -17.56591 130.17599 37123 ft 520 kts 123°
2026-05-05 22:41 -17.60118 130.24208 37131 ft 520 kts 123°
2026-05-05 22:41 -17.63652 130.30838 37128 ft 520 kts 123°
2026-05-05 22:42 -17.67159 130.37421 37127 ft 521 kts 123°
2026-05-05 22:42 -17.70690 130.44058 37129 ft 521 kts 123°
2026-05-05 22:43 -17.74219 130.50699 37128 ft 522 kts 123°
2026-05-05 22:43 -17.77748 130.57346 37133 ft 522 kts 123°
2026-05-05 22:44 -17.81256 130.63960 37137 ft 522 kts 123°
2026-05-05 22:44 -17.84786 130.70623 37135 ft 523 kts 123°
2026-05-05 22:45 -17.88317 130.77294 37139 ft 523 kts 123°
2026-05-05 22:45 -17.91851 130.83978 37135 ft 523 kts 123°
2026-05-05 22:46 -17.95382 130.90664 37140 ft 524 kts 123°
2026-05-05 22:46 -17.98891 130.97314 37138 ft 524 kts 122°
2026-05-05 22:47 -18.02423 131.04014 37141 ft 524 kts 122°
2026-05-05 22:47 -18.05956 131.10726 37140 ft 525 kts 122°
2026-05-05 22:48 -18.09487 131.17438 37144 ft 525 kts 122°
2026-05-05 22:48 -18.12994 131.24114 37132 ft 525 kts 122°
2026-05-05 22:49 -18.16521 131.30833 37134 ft 526 kts 122°
2026-05-05 22:49 -18.20054 131.37571 37144 ft 526 kts 122°
2026-05-05 22:50 -18.23585 131.44313 37145 ft 526 kts 122°
2026-05-05 22:50 -18.27087 131.51007 37142 ft 526 kts 122°
2026-05-05 22:51 -18.30614 131.57756 37154 ft 526 kts 122°
2026-05-05 22:51 -18.34139 131.64509 37150 ft 526 kts 122°
2026-05-05 22:52 -18.37661 131.71264 37153 ft 526 kts 122°
2026-05-05 22:52 -18.41158 131.77976 37150 ft 527 kts 122°
2026-05-05 22:53 -18.44677 131.84739 37154 ft 527 kts 122°
2026-05-05 22:53 -18.48199 131.91515 37155 ft 527 kts 122°
2026-05-05 22:54 -18.51716 131.98289 37157 ft 527 kts 122°
2026-05-05 22:54 -18.55207 132.05020 37156 ft 527 kts 122°
2026-05-05 22:55 -18.58718 132.11796 37161 ft 527 kts 122°
2026-05-05 22:55 -18.62226 132.18576 37160 ft 527 kts 122°
2026-05-05 22:56 -18.65735 132.25363 37158 ft 527 kts 122°
2026-05-05 22:56 -18.69239 132.32149 37160 ft 527 kts 122°
2026-05-05 22:57 -18.72716 132.38891 37160 ft 527 kts 122°
2026-05-05 22:57 -18.76213 132.45677 37170 ft 527 kts 122°
2026-05-05 22:58 -18.79708 132.52470 37165 ft 526 kts 122°
2026-05-05 22:58 -18.83193 132.59267 37165 ft 526 kts 122°
2026-05-05 22:59 -18.86674 132.66074 37165 ft 527 kts 122°
2026-05-05 22:59 -18.90128 132.72836 37165 ft 527 kts 122°
2026-05-05 23:00 -18.95344 132.83059 37170 ft 528 kts 122°
2026-05-05 23:00 -18.98823 132.89885 37169 ft 528 kts 121°
2026-05-05 23:01 -19.02302 132.96720 37166 ft 528 kts 121°
2026-05-05 23:01 -19.05751 133.03504 37163 ft 528 kts 121°
2026-05-05 23:02 -19.09223 133.10340 37156 ft 528 kts 121°
2026-05-05 23:02 -19.12698 133.17190 37160 ft 528 kts 121°
2026-05-05 23:03 -19.16165 133.24033 37163 ft 528 kts 121°
2026-05-05 23:03 -19.19607 133.30835 37166 ft 528 kts 121°
2026-05-05 23:04 -19.23074 133.37693 37168 ft 528 kts 121°
2026-05-05 23:04 -19.26533 133.44543 37168 ft 528 kts 121°
2026-05-05 23:05 -19.29996 133.51410 37169 ft 528 kts 121°
2026-05-05 23:05 -19.33431 133.58228 37173 ft 528 kts 121°
2026-05-05 23:06 -19.36884 133.65090 37173 ft 528 kts 121°
2026-05-05 23:06 -19.40338 133.71964 37176 ft 528 kts 121°
2026-05-05 23:07 -19.43787 133.78834 37179 ft 528 kts 121°
2026-05-05 23:07 -19.47216 133.85672 37181 ft 529 kts 121°
2026-05-05 23:08 -19.50661 133.92551 37182 ft 529 kts 121°
2026-05-05 23:08 -19.54105 133.99436 37187 ft 529 kts 121°
2026-05-05 23:09 -19.57549 134.06330 37187 ft 529 kts 121°
2026-05-05 23:09 -19.60990 134.13224 37186 ft 529 kts 121°
2026-05-05 23:10 -19.64412 134.20080 37182 ft 529 kts 121°
2026-05-05 23:10 -19.68053 134.26861 37187 ft 528 kts 124°
2026-05-05 23:11 -19.71779 134.33571 37192 ft 528 kts 124°
2026-05-05 23:11 -19.75482 134.40312 37184 ft 528 kts 123°
2026-05-05 23:12 -19.79127 134.47022 37194 ft 529 kts 123°
2026-05-05 23:12 -19.82788 134.53790 37194 ft 529 kts 123°
2026-05-05 23:13 -19.86449 134.60565 37195 ft 529 kts 123°
2026-05-05 23:13 -19.90109 134.67343 37198 ft 529 kts 123°
2026-05-05 23:14 -19.93769 134.74129 37185 ft 529 kts 123°
2026-05-05 23:14 -19.97429 134.80919 37186 ft 529 kts 123°
2026-05-05 23:15 -20.01059 134.87665 37188 ft 529 kts 123°
2026-05-05 23:15 -20.04715 134.94465 37192 ft 530 kts 123°
2026-05-05 23:16 -20.08368 135.01268 37199 ft 530 kts 123°
2026-05-05 23:16 -20.12022 135.08082 37199 ft 530 kts 123°
2026-05-05 23:17 -20.15647 135.14849 37199 ft 530 kts 123°
2026-05-05 23:17 -20.19296 135.21669 37203 ft 530 kts 123°
2026-05-05 23:18 -20.22944 135.28496 37200 ft 531 kts 122°
2026-05-05 23:18 -20.26595 135.35334 37201 ft 531 kts 122°
2026-05-05 23:19 -20.30217 135.42129 37205 ft 531 kts 122°
2026-05-05 23:19 -20.33860 135.48971 37205 ft 531 kts 122°
2026-05-05 23:20 -20.37501 135.55817 37204 ft 531 kts 122°
2026-05-05 23:20 -20.41146 135.62677 37206 ft 531 kts 122°
2026-05-05 23:21 -20.44759 135.69486 37206 ft 532 kts 122°
2026-05-05 23:21 -20.48400 135.76358 37206 ft 532 kts 122°
2026-05-05 23:22 -20.52036 135.83227 37208 ft 532 kts 122°
2026-05-05 23:22 -20.55675 135.90111 37210 ft 532 kts 122°
2026-05-05 23:23 -20.59307 135.96990 37211 ft 532 kts 122°
2026-05-05 23:23 -20.62919 136.03839 37211 ft 533 kts 122°
2026-05-05 23:24 -20.66549 136.10731 37210 ft 533 kts 122°
2026-05-05 23:24 -20.70176 136.17625 37212 ft 533 kts 122°
2026-05-05 23:25 -20.73805 136.24533 37214 ft 533 kts 122°
2026-05-05 23:25 -20.77424 136.31442 37215 ft 533 kts 122°
2026-05-05 23:26 -20.81016 136.38314 37211 ft 533 kts 122°
2026-05-05 23:26 -20.84631 136.45236 37217 ft 533 kts 122°
2026-05-05 23:27 -20.88247 136.52168 37218 ft 533 kts 122°
2026-05-05 23:27 -20.91859 136.59100 37211 ft 534 kts 122°
2026-05-05 23:28 -20.95442 136.65987 37215 ft 534 kts 122°
2026-05-05 23:28 -20.99047 136.72923 37220 ft 534 kts 122°
2026-05-05 23:29 -21.02655 136.79874 37218 ft 534 kts 122°
2026-05-05 23:29 -21.06255 136.86819 37218 ft 534 kts 122°
2026-05-05 23:30 -21.09246 136.92595 37219 ft 534 kts 122°
2026-05-05 23:30 -21.13430 137.00685 37217 ft 534 kts 121°
2026-05-05 23:31 -21.17028 137.07652 37216 ft 534 kts 121°
2026-05-05 23:31 -21.20621 137.14620 37215 ft 534 kts 121°
2026-05-05 23:32 -21.24214 137.21594 37218 ft 535 kts 121°
2026-05-05 23:32 -21.27780 137.28527 37218 ft 535 kts 121°
2026-05-05 23:33 -21.31373 137.35520 37214 ft 535 kts 121°
2026-05-05 23:33 -21.34964 137.42519 37217 ft 535 kts 121°
2026-05-05 23:34 -21.38551 137.49519 37213 ft 536 kts 121°
2026-05-05 23:34 -21.42111 137.56475 37215 ft 536 kts 121°
2026-05-05 23:35 -21.45698 137.63492 37214 ft 536 kts 121°
2026-05-05 23:35 -21.49278 137.70506 37215 ft 536 kts 121°
2026-05-05 23:36 -21.52856 137.77526 37217 ft 536 kts 121°
2026-05-05 23:36 -21.56438 137.84560 37216 ft 536 kts 121°
2026-05-05 23:37 -21.59992 137.91556 37210 ft 537 kts 121°
2026-05-05 23:37 -21.63567 137.98602 37209 ft 537 kts 121°
2026-05-05 23:38 -21.67144 138.05652 37214 ft 537 kts 121°
2026-05-05 23:38 -21.70717 138.12705 37211 ft 538 kts 121°
2026-05-05 23:39 -21.74291 138.19773 37211 ft 538 kts 121°
2026-05-05 23:39 -21.77835 138.26792 37210 ft 538 kts 121°
2026-05-05 23:40 -21.81404 138.33869 37212 ft 538 kts 121°
2026-05-05 23:40 -21.84971 138.40952 37212 ft 538 kts 121°
2026-05-05 23:41 -21.88536 138.48040 37212 ft 538 kts 121°
2026-05-05 23:41 -21.92071 138.55079 37209 ft 538 kts 121°
2026-05-05 23:42 -21.95629 138.62172 37209 ft 538 kts 121°
2026-05-05 23:42 -21.99185 138.69272 37210 ft 538 kts 120°
2026-05-05 23:43 -22.02137 138.75173 37208 ft 538 kts 120°
2026-05-05 23:43 -22.06262 138.83430 37210 ft 539 kts 120°
2026-05-05 23:44 -22.09814 138.90549 37210 ft 539 kts 120°
2026-05-05 23:44 -22.13360 138.97668 37211 ft 539 kts 120°
2026-05-05 23:45 -22.16304 139.03585 37210 ft 539 kts 120°
2026-05-05 23:45 -22.20421 139.11870 37206 ft 539 kts 120°
2026-05-05 23:46 -22.23957 139.18999 37205 ft 539 kts 120°
2026-05-05 23:46 -22.27491 139.26131 37202 ft 539 kts 120°
2026-05-05 23:47 -22.30431 139.32072 37202 ft 539 kts 120°
2026-05-05 23:47 -22.33961 139.39217 37203 ft 539 kts 120°
2026-05-05 23:48 -22.38059 139.47521 37206 ft 539 kts 120°
2026-05-05 23:48 -22.40992 139.53474 37207 ft 539 kts 120°
2026-05-05 23:49 -22.44515 139.60632 37205 ft 540 kts 120°
2026-05-05 23:49 -22.48034 139.67794 37205 ft 540 kts 120°
2026-05-05 23:50 -22.51555 139.74968 37205 ft 540 kts 120°
2026-05-05 23:50 -22.55071 139.82144 37202 ft 540 kts 120°
2026-05-05 23:51 -22.58565 139.89283 37202 ft 540 kts 120°
2026-05-05 23:51 -22.62079 139.96474 37201 ft 540 kts 120°
2026-05-05 23:52 -22.65590 140.03670 37200 ft 541 kts 120°
2026-05-05 23:52 -22.69096 140.10865 37200 ft 541 kts 120°
2026-05-05 23:53 -22.72581 140.18027 37180 ft 541 kts 120°
2026-05-05 23:53 -22.76083 140.25235 37186 ft 541 kts 120°
2026-05-05 23:54 -22.79585 140.32452 37189 ft 541 kts 119°
2026-05-05 23:54 -22.83085 140.39677 37195 ft 541 kts 119°
2026-05-05 23:55 -22.86581 140.46902 37203 ft 541 kts 119°
2026-05-05 23:55 -22.90050 140.54083 37186 ft 541 kts 119°
2026-05-05 23:56 -22.93537 140.61313 37187 ft 541 kts 119°
2026-05-05 23:56 -22.97025 140.68554 37192 ft 541 kts 119°
2026-05-05 23:57 -23.00488 140.75754 37194 ft 541 kts 119°
2026-05-05 23:57 -23.03968 140.83000 37183 ft 542 kts 119°
2026-05-05 23:58 -23.07446 140.90253 37184 ft 542 kts 119°
2026-05-05 23:58 -23.10922 140.97514 37180 ft 542 kts 119°
2026-05-05 23:59 -23.14368 141.04724 37182 ft 542 kts 119°
2026-05-05 23:59 -23.17839 141.11992 37183 ft 542 kts 119°
2026-05-06 00:00 -23.21304 141.19262 37180 ft 542 kts 119°
2026-05-06 00:00 -23.24774 141.26552 37183 ft 542 kts 119°
2026-05-06 00:01 -23.28214 141.33790 37181 ft 542 kts 119°
2026-05-06 00:01 -23.31671 141.41076 37177 ft 542 kts 119°
2026-05-06 00:02 -23.35127 141.48372 37177 ft 542 kts 119°
2026-05-06 00:02 -23.38582 141.55674 37175 ft 542 kts 119°
2026-05-06 00:03 -23.42031 141.62974 37173 ft 542 kts 119°
2026-05-06 00:03 -23.45453 141.70231 37174 ft 543 kts 119°
2026-05-06 00:04 -23.48900 141.77548 37169 ft 543 kts 119°
2026-05-06 00:04 -23.52339 141.84861 37168 ft 543 kts 118°
2026-05-06 00:05 -23.57471 141.95795 37170 ft 543 kts 118°
2026-05-06 00:06 -23.60902 142.03120 37165 ft 543 kts 118°
2026-05-06 00:06 -23.64333 142.10453 37168 ft 543 kts 118°
2026-05-06 00:07 -23.67760 142.17791 37165 ft 543 kts 118°
2026-05-06 00:07 -23.71158 142.25079 37167 ft 543 kts 118°
2026-05-06 00:08 -23.74576 142.32419 37166 ft 543 kts 118°
2026-05-06 00:08 -23.77991 142.39765 37165 ft 542 kts 118°
2026-05-06 00:09 -23.81403 142.47116 37166 ft 542 kts 118°
2026-05-06 00:09 -23.84784 142.54411 37170 ft 542 kts 118°
2026-05-06 00:10 -23.88190 142.61771 37169 ft 542 kts 118°
2026-05-06 00:10 -23.91587 142.69123 37166 ft 542 kts 118°
2026-05-06 00:11 -23.94982 142.76482 37167 ft 542 kts 118°
2026-05-06 00:11 -23.98352 142.83800 37166 ft 542 kts 118°
2026-05-06 00:12 -24.01740 142.91167 37171 ft 542 kts 118°
2026-05-06 00:12 -24.05129 142.98547 37169 ft 542 kts 118°
2026-05-06 00:13 -24.08512 143.05926 37165 ft 543 kts 118°
2026-05-06 00:13 -24.11889 143.13304 37167 ft 543 kts 118°
2026-05-06 00:14 -24.15245 143.20647 37164 ft 543 kts 118°
2026-05-06 00:14 -24.18620 143.28046 37160 ft 543 kts 118°
2026-05-06 00:15 -24.21989 143.35440 37167 ft 543 kts 118°
2026-05-06 00:15 -24.25355 143.42841 37167 ft 543 kts 118°
2026-05-06 00:16 -24.28692 143.50204 37154 ft 543 kts 118°
2026-05-06 00:16 -24.32048 143.57612 37152 ft 543 kts 118°
2026-05-06 00:17 -24.35401 143.65023 37152 ft 543 kts 118°
2026-05-06 00:17 -24.38750 143.72439 37155 ft 542 kts 118°
2026-05-06 00:18 -24.42073 143.79811 37156 ft 542 kts 118°
2026-05-06 00:18 -24.45411 143.87227 37173 ft 542 kts 118°
2026-05-06 00:19 -24.48748 143.94656 37169 ft 542 kts 118°
2026-05-06 00:19 -24.52080 144.02085 37168 ft 542 kts 117°
2026-05-06 00:20 -24.55405 144.09509 37161 ft 542 kts 117°
2026-05-06 00:20 -24.58707 144.16895 37160 ft 542 kts 117°
2026-05-06 00:21 -24.62027 144.24332 37156 ft 542 kts 117°
2026-05-06 00:21 -24.65340 144.31767 37156 ft 542 kts 117°
2026-05-06 00:22 -24.68653 144.39214 37162 ft 542 kts 117°
2026-05-06 00:22 -24.71937 144.46607 37159 ft 542 kts 117°
2026-05-06 00:23 -24.75243 144.54062 37166 ft 542 kts 117°
2026-05-06 00:23 -24.78546 144.61522 37163 ft 542 kts 117°
2026-05-06 00:24 -24.81843 144.68981 37161 ft 542 kts 117°
2026-05-06 00:24 -24.85116 144.76397 37165 ft 542 kts 117°
2026-05-06 00:25 -24.88404 144.83861 37164 ft 542 kts 117°
2026-05-06 00:25 -24.91689 144.91331 37162 ft 542 kts 117°
2026-05-06 00:26 -24.94968 144.98799 37162 ft 542 kts 117°
2026-05-06 00:26 -24.98244 145.06273 37162 ft 541 kts 117°
2026-05-06 00:27 -25.01492 145.13695 37163 ft 541 kts 117°
2026-05-06 00:27 -25.04761 145.21177 37164 ft 541 kts 117°
2026-05-06 00:28 -25.08025 145.28662 37165 ft 541 kts 117°
2026-05-06 00:28 -25.11282 145.36140 37164 ft 541 kts 117°
2026-05-06 00:29 -25.14515 145.43579 37165 ft 541 kts 117°
2026-05-06 00:29 -25.17767 145.51074 37166 ft 541 kts 117°
2026-05-06 00:30 -25.21012 145.58564 37164 ft 541 kts 117°
2026-05-06 00:30 -25.24251 145.66054 37170 ft 541 kts 117°
2026-05-06 00:31 -25.27469 145.73505 37171 ft 541 kts 117°
2026-05-06 00:31 -25.30699 145.81001 37168 ft 541 kts 117°
2026-05-06 00:32 -25.33929 145.88508 37169 ft 541 kts 117°
2026-05-06 00:32 -25.37151 145.96012 37172 ft 541 kts 117°
2026-05-06 00:33 -25.40353 146.03479 37172 ft 541 kts 117°
2026-05-06 00:33 -25.43572 146.11001 37171 ft 541 kts 117°
2026-05-06 00:34 -25.46783 146.18518 37168 ft 541 kts 116°
2026-05-06 00:34 -25.49992 146.26044 37171 ft 541 kts 116°
2026-05-06 00:35 -25.53201 146.33581 37168 ft 541 kts 116°
2026-05-06 00:35 -25.56380 146.41060 37169 ft 541 kts 116°
2026-05-06 00:36 -25.59577 146.48598 37168 ft 541 kts 116°
2026-05-06 00:36 -25.62771 146.56139 37171 ft 541 kts 116°
2026-05-06 00:37 -25.65959 146.63678 37168 ft 541 kts 116°
2026-05-06 00:37 -25.69125 146.71180 37168 ft 540 kts 116°
2026-05-06 00:38 -25.72306 146.78733 37168 ft 540 kts 116°
2026-05-06 00:38 -25.75480 146.86280 37165 ft 540 kts 116°
2026-05-06 00:39 -25.78654 146.93840 37171 ft 540 kts 116°
2026-05-06 00:39 -25.81803 147.01353 37175 ft 540 kts 116°
2026-05-06 00:40 -25.84966 147.08915 37172 ft 540 kts 116°
2026-05-06 00:40 -25.88127 147.16484 37172 ft 540 kts 116°
2026-05-06 00:41 -25.91281 147.24050 37172 ft 540 kts 116°
2026-05-06 00:41 -25.94413 147.31578 37177 ft 540 kts 116°
2026-05-06 00:42 -25.97558 147.39151 37178 ft 540 kts 116°
2026-05-06 00:42 -26.00700 147.46728 37175 ft 539 kts 116°
2026-05-06 00:43 -26.03833 147.54299 37179 ft 539 kts 116°
2026-05-06 00:43 -26.06966 147.61881 37184 ft 539 kts 116°
2026-05-06 00:44 -26.10070 147.69407 37181 ft 539 kts 115°
2026-05-06 00:44 -26.13187 147.76980 37182 ft 539 kts 115°
2026-05-06 00:45 -26.16306 147.84570 37179 ft 539 kts 115°
2026-05-06 00:45 -26.19416 147.92153 37180 ft 539 kts 115°
2026-05-06 00:46 -26.22505 147.99696 37179 ft 539 kts 115°
2026-05-06 00:46 -26.25608 148.07289 37181 ft 539 kts 115°
2026-05-06 00:47 -26.28708 148.14888 37176 ft 539 kts 115°
2026-05-06 00:47 -26.31807 148.22497 37179 ft 539 kts 115°
2026-05-06 00:48 -26.34898 148.30102 37178 ft 539 kts 115°
2026-05-06 00:48 -26.37965 148.37663 37178 ft 539 kts 115°
2026-05-06 00:49 -26.41051 148.45284 37172 ft 539 kts 115°
2026-05-06 00:49 -26.44134 148.52909 37174 ft 539 kts 115°
2026-05-06 00:50 -26.47207 148.60525 37173 ft 539 kts 115°
2026-05-06 00:50 -26.50257 148.68099 37172 ft 539 kts 115°
2026-05-06 00:51 -26.53320 148.75737 37172 ft 539 kts 114°
2026-05-06 00:51 -26.55475 148.83726 37171 ft 538 kts 102°
2026-05-06 00:52 -26.57177 148.91866 37173 ft 538 kts 101°
2026-05-06 00:52 -26.58807 149.00025 37169 ft 538 kts 101°
2026-05-06 00:53 -26.60434 149.08122 37168 ft 538 kts 101°
2026-05-06 00:53 -26.62084 149.16268 37162 ft 538 kts 101°
2026-05-06 00:54 -26.63739 149.24428 37165 ft 538 kts 101°
2026-05-06 00:54 -26.65387 149.32583 37161 ft 538 kts 101°
2026-05-06 00:55 -26.67017 149.40679 37157 ft 538 kts 101°
2026-05-06 00:55 -26.68655 149.48842 37154 ft 538 kts 101°
2026-05-06 00:56 -26.70288 149.57002 37153 ft 538 kts 101°
2026-05-06 00:56 -26.71913 149.65172 37153 ft 538 kts 101°
2026-05-06 00:57 -26.73537 149.73340 37152 ft 538 kts 101°
2026-05-06 00:57 -26.75149 149.81463 37152 ft 538 kts 101°
2026-05-06 00:58 -26.76764 149.89636 37153 ft 538 kts 101°
2026-05-06 00:58 -26.78375 149.97816 37150 ft 538 kts 101°
2026-05-06 00:59 -26.79982 150.06007 37141 ft 538 kts 101°
2026-05-06 00:59 -26.81572 150.14134 37141 ft 538 kts 101°
2026-05-06 01:00 -26.83168 150.22320 37136 ft 538 kts 101°
2026-05-06 01:00 -26.84762 150.30519 37139 ft 539 kts 101°
2026-05-06 01:01 -26.86352 150.38726 37140 ft 539 kts 101°
2026-05-06 01:01 -26.87920 150.46871 37137 ft 539 kts 101°
2026-05-06 01:02 -26.89499 150.55068 37138 ft 538 kts 101°
2026-05-06 01:02 -26.91075 150.63273 37135 ft 538 kts 101°
2026-05-06 01:03 -26.92643 150.71472 37132 ft 538 kts 101°
2026-05-06 01:03 -26.94205 150.79671 37134 ft 538 kts 101°
2026-05-06 01:04 -26.95752 150.87822 37131 ft 538 kts 101°
2026-05-06 01:04 -26.97304 150.96017 37130 ft 538 kts 101°
2026-05-06 01:05 -26.98852 151.04223 37128 ft 538 kts 101°
2026-05-06 01:05 -27.00393 151.12420 37124 ft 538 kts 101°
2026-05-06 01:06 -27.02003 151.21015 37129 ft 538 kts 101°
2026-05-06 01:06 -27.03537 151.29229 37127 ft 538 kts 101°
2026-05-06 01:07 -27.05065 151.37441 37127 ft 538 kts 100°
2026-05-06 01:07 -27.06577 151.45595 37127 ft 538 kts 100°
2026-05-06 01:08 -27.08095 151.53808 37125 ft 538 kts 100°
2026-05-06 01:08 -27.09608 151.62022 37126 ft 538 kts 100°
2026-05-06 01:09 -27.11116 151.70238 37121 ft 538 kts 100°
2026-05-06 01:09 -27.12621 151.78457 37128 ft 538 kts 100°
2026-05-06 01:10 -27.14111 151.86630 37129 ft 538 kts 100°
2026-05-06 01:10 -27.15605 151.94858 37131 ft 538 kts 100°
2026-05-06 01:11 -27.17093 152.03075 37131 ft 538 kts 100°
2026-05-06 01:11 -27.18577 152.11306 37125 ft 537 kts 100°
2026-05-06 01:12 -27.20047 152.19481 37126 ft 538 kts 100°
2026-05-06 01:12 -27.21522 152.27714 37123 ft 537 kts 100°
2026-05-06 01:13 -27.22994 152.35951 37129 ft 538 kts 100°
2026-05-06 01:13 -27.24458 152.44185 37125 ft 538 kts 100°
2026-05-06 01:14 -27.26623 152.56471 37120 ft 538 kts 100°
2026-05-06 01:14 -27.28069 152.64714 37119 ft 538 kts 100°
2026-05-06 01:15 -27.29511 152.72959 37118 ft 538 kts 100°
2026-05-06 01:15 -27.30949 152.81205 37094 ft 537 kts 99°
2026-05-06 01:16 -27.32371 152.89401 37105 ft 537 kts 100°
2026-05-06 01:16 -27.33799 152.97651 37106 ft 538 kts 100°
2026-05-06 01:17 -27.35223 153.05903 37101 ft 538 kts 100°
2026-05-06 01:17 -27.37368 153.13926 37104 ft 535 kts 120°
2026-05-06 01:18 -27.39331 153.17374 37112 ft 528 kts 133°
2026-05-06 01:18 -27.41612 153.20590 37102 ft 526 kts 135°
2026-05-06 01:18 -27.46406 153.26802 37107 ft 525 kts 137°
2026-05-06 01:19 -27.51253 153.32949 37112 ft 525 kts 137°
2026-05-06 01:19 -27.56056 153.39161 37118 ft 526 kts 136°
2026-05-06 01:20 -27.60801 153.45434 37121 ft 526 kts 136°
2026-05-06 01:20 -27.65501 153.51672 37126 ft 526 kts 136°
2026-05-06 01:21 -27.70294 153.58019 37117 ft 541 kts 136°
2026-05-06 01:21 -27.72762 153.61281 37114 ft 552 kts 136°
2026-05-06 01:21 -27.75277 153.64609 37117 ft 562 kts 135°
2026-05-06 01:22 -27.80429 153.71448 37121 ft 581 kts 135°
2026-05-06 01:22 -27.85649 153.78503 37111 ft 599 kts 130°
2026-05-06 01:23 -27.89703 153.86814 37124 ft 606 kts 118°
2026-05-06 01:23 -27.93259 153.95469 37119 ft 607 kts 116°
2026-05-06 01:24 -27.96715 154.04167 37116 ft 607 kts 116°
2026-05-06 01:24 -28.00201 154.12867 37116 ft 606 kts 116°
2026-05-06 01:25 -28.03686 154.21483 37122 ft 606 kts 116°
2026-05-06 01:25 -28.07199 154.30159 37121 ft 606 kts 116°
2026-05-06 01:26 -28.10705 154.38847 37111 ft 606 kts 116°
2026-05-06 01:26 -28.14200 154.47532 37109 ft 606 kts 116°
2026-05-06 01:27 -28.17686 154.56219 37108 ft 606 kts 116°
2026-05-06 01:27 -28.21147 154.64861 37115 ft 605 kts 116°
2026-05-06 01:28 -28.24619 154.73549 37110 ft 605 kts 116°
2026-05-06 01:28 -28.28086 154.82244 37110 ft 605 kts 116°
2026-05-06 01:29 -28.31552 154.90955 37106 ft 605 kts 116°
2026-05-06 01:29 -28.34982 154.99598 37109 ft 605 kts 116°
2026-05-06 01:30 -28.38433 155.08311 37107 ft 605 kts 116°
2026-05-06 01:30 -28.41876 155.17023 37095 ft 605 kts 116°
2026-05-06 01:31 -28.45315 155.25745 37097 ft 605 kts 116°
2026-05-06 01:31 -28.48725 155.34414 37112 ft 604 kts 116°
2026-05-06 01:32 -28.52148 155.43137 37102 ft 604 kts 116°
2026-05-06 01:32 -28.55569 155.51873 37102 ft 604 kts 116°
2026-05-06 01:33 -28.58981 155.60605 37099 ft 604 kts 116°
2026-05-06 01:33 -28.61811 155.67863 37104 ft 604 kts 116°
2026-05-06 01:34 -28.65213 155.76608 37096 ft 604 kts 116°
2026-05-06 01:34 -28.68583 155.85291 37099 ft 604 kts 116°
2026-05-06 01:35 -28.72541 155.95513 37094 ft 603 kts 116°
2026-05-06 01:35 -28.75350 156.02784 37094 ft 603 kts 116°
2026-05-06 01:36 -28.79273 156.12962 37096 ft 603 kts 116°
2026-05-06 01:36 -28.82094 156.20298 37097 ft 603 kts 116°
2026-05-06 01:37 -28.85430 156.28992 37091 ft 603 kts 116°
2026-05-06 01:37 -28.88785 156.37757 37093 ft 602 kts 116°
2026-05-06 01:38 -28.92129 156.46513 37093 ft 602 kts 115°
2026-05-06 01:38 -28.95470 156.55281 37093 ft 602 kts 115°
2026-05-06 01:39 -28.98777 156.63983 37088 ft 601 kts 115°
2026-05-06 01:39 -29.02547 156.72473 37089 ft 597 kts 124°
2026-05-06 01:40 -29.06866 156.80567 37084 ft 596 kts 126°
2026-05-06 01:40 -29.11273 156.88589 37086 ft 596 kts 126°
2026-05-06 01:41 -29.15678 156.96615 37092 ft 595 kts 126°
2026-05-06 01:41 -29.20031 157.04604 37088 ft 595 kts 125°
2026-05-06 01:42 -29.24803 157.13407 37086 ft 595 kts 125°
2026-05-06 01:42 -29.29159 157.21462 37086 ft 594 kts 125°
2026-05-06 01:43 -29.33503 157.29507 37085 ft 594 kts 125°
2026-05-06 01:43 -29.37817 157.37511 37083 ft 593 kts 125°
2026-05-06 01:44 -29.42145 157.45558 37082 ft 593 kts 125°
2026-05-06 01:44 -29.46470 157.53614 37080 ft 593 kts 125°
2026-05-06 01:45 -29.50788 157.61672 37083 ft 592 kts 125°
2026-05-06 01:45 -29.55094 157.69725 37082 ft 592 kts 125°
2026-05-06 01:46 -29.59369 157.77735 37085 ft 592 kts 125°
2026-05-06 01:46 -29.63660 157.85792 37078 ft 591 kts 125°
2026-05-06 01:47 -29.67950 157.93863 37079 ft 591 kts 125°
2026-05-06 01:47 -29.72229 158.01927 37082 ft 591 kts 125°
2026-05-06 01:48 -29.76477 158.09950 37078 ft 590 kts 124°
2026-05-06 01:48 -29.80740 158.18016 37075 ft 590 kts 124°
2026-05-06 01:49 -29.85000 158.26094 37074 ft 590 kts 124°
2026-05-06 01:49 -29.89249 158.34166 37074 ft 589 kts 124°
2026-05-06 01:50 -29.93466 158.42194 37073 ft 589 kts 124°
2026-05-06 01:50 -29.97701 158.50272 37074 ft 589 kts 124°
2026-05-06 01:51 -30.01927 158.58349 37070 ft 588 kts 124°
2026-05-06 01:51 -30.06151 158.66438 37071 ft 588 kts 124°
2026-05-06 01:52 -30.10362 158.74520 37067 ft 588 kts 124°
2026-05-06 01:52 -30.14544 158.82562 37070 ft 587 kts 124°
2026-05-06 01:53 -30.18743 158.90653 37068 ft 587 kts 124°
2026-05-06 01:53 -30.22938 158.98753 37069 ft 587 kts 124°
2026-05-06 01:54 -30.27122 159.06848 37074 ft 586 kts 124°
2026-05-06 01:54 -30.31275 159.14900 37076 ft 586 kts 124°
2026-05-06 01:55 -30.35447 159.23005 37063 ft 586 kts 124°
2026-05-06 01:55 -30.39607 159.31103 37061 ft 585 kts 124°
2026-05-06 01:56 -30.43760 159.39205 37056 ft 585 kts 123°
2026-05-06 01:56 -30.47882 159.47263 37058 ft 584 kts 123°
2026-05-06 01:57 -30.52020 159.55367 37068 ft 584 kts 123°
2026-05-06 01:57 -30.56156 159.63485 37062 ft 584 kts 123°
2026-05-06 01:58 -30.60281 159.71598 37057 ft 584 kts 123°
2026-05-06 01:58 -30.64401 159.79720 37061 ft 583 kts 123°
2026-05-06 01:59 -30.68485 159.87787 37064 ft 583 kts 123°
2026-05-06 01:59 -30.72590 159.95910 37063 ft 583 kts 123°
2026-05-06 02:00 -30.76687 160.04036 37060 ft 583 kts 123°
2026-05-06 02:00 -30.80780 160.12170 37061 ft 583 kts 123°
2026-05-06 02:01 -30.84841 160.20257 37060 ft 582 kts 123°
2026-05-06 02:01 -30.88914 160.28387 37064 ft 581 kts 123°
2026-05-06 02:02 -30.92984 160.36527 37057 ft 581 kts 123°
2026-05-06 02:02 -30.97043 160.44661 37063 ft 581 kts 123°
2026-05-06 02:03 -31.01094 160.52796 37059 ft 580 kts 123°
2026-05-06 02:03 -31.05107 160.60874 37057 ft 579 kts 123°
2026-05-06 02:04 -31.09135 160.68998 37061 ft 578 kts 123°
2026-05-06 02:04 -31.13151 160.77115 37058 ft 577 kts 122°
2026-05-06 02:05 -31.17158 160.85230 37066 ft 576 kts 122°
2026-05-06 02:05 -31.21130 160.93293 37061 ft 576 kts 122°
2026-05-06 02:06 -31.25114 161.01396 37061 ft 575 kts 122°
2026-05-06 02:06 -31.29087 161.09493 37059 ft 574 kts 122°
2026-05-06 02:07 -31.33049 161.17584 37058 ft 573 kts 122°
2026-05-06 02:07 -31.37003 161.25680 37058 ft 572 kts 122°
2026-05-06 02:08 -31.40913 161.33700 37057 ft 571 kts 122°
2026-05-06 02:08 -31.44846 161.41785 37070 ft 570 kts 122°
2026-05-06 02:09 -31.48763 161.49855 37071 ft 570 kts 122°
2026-05-06 02:09 -31.52672 161.57923 37061 ft 569 kts 122°
2026-05-06 02:10 -31.56566 161.65980 37071 ft 568 kts 122°
2026-05-06 02:10 -31.60430 161.73991 37066 ft 567 kts 121°
2026-05-06 02:11 -31.64308 161.82046 37066 ft 567 kts 121°
2026-05-06 02:11 -31.68175 161.90099 37066 ft 566 kts 121°
2026-05-06 02:12 -31.72016 161.98112 37068 ft 566 kts 121°
2026-05-06 02:12 -31.75873 162.06176 37070 ft 566 kts 121°
2026-05-06 02:13 -31.79723 162.14244 37074 ft 566 kts 121°
2026-05-06 02:13 -31.83563 162.22309 37074 ft 565 kts 121°
2026-05-06 02:14 -31.87398 162.30380 37073 ft 565 kts 121°
2026-05-06 02:14 -31.91199 162.38396 37076 ft 565 kts 121°
2026-05-06 02:15 -31.95021 162.46475 37077 ft 564 kts 121°
2026-05-06 02:15 -31.98833 162.54550 37077 ft 564 kts 121°
2026-05-06 02:16 -32.02615 162.62578 37076 ft 563 kts 121°
2026-05-06 02:16 -32.06406 162.70643 37074 ft 563 kts 121°
2026-05-06 02:17 -32.10195 162.78724 37076 ft 562 kts 121°
2026-05-06 02:17 -32.13975 162.86800 37074 ft 562 kts 121°
2026-05-06 02:18 -32.17748 162.94879 37077 ft 562 kts 121°
2026-05-06 02:18 -32.21484 163.02900 37083 ft 561 kts 121°
2026-05-06 02:19 -32.25239 163.10982 37084 ft 561 kts 121°
2026-05-06 02:19 -32.28984 163.19061 37085 ft 560 kts 121°
2026-05-06 02:20 -32.34581 163.31168 37086 ft 559 kts 120°
2026-05-06 02:21 -32.38275 163.39180 37090 ft 558 kts 120°
2026-05-06 02:21 -32.41979 163.47233 37093 ft 557 kts 120°
2026-05-06 02:22 -32.45674 163.55281 37093 ft 556 kts 120°
2026-05-06 02:22 -32.49362 163.63333 37097 ft 556 kts 120°
2026-05-06 02:23 -32.53015 163.71328 37098 ft 555 kts 120°
2026-05-06 02:23 -32.56685 163.79376 37099 ft 555 kts 120°
2026-05-06 02:24 -32.60353 163.87438 37103 ft 555 kts 120°
2026-05-06 02:24 -32.64010 163.95495 37105 ft 555 kts 120°
2026-05-06 02:25 -32.67664 164.03561 37105 ft 555 kts 120°
2026-05-06 02:25 -32.71289 164.11582 37108 ft 555 kts 120°
2026-05-06 02:26 -32.74928 164.19653 37112 ft 554 kts 120°
2026-05-06 02:26 -32.78565 164.27736 37113 ft 554 kts 120°
2026-05-06 02:27 -32.82192 164.35816 37113 ft 554 kts 120°
2026-05-06 02:27 -32.85814 164.43902 37117 ft 554 kts 120°
2026-05-06 02:28 -32.89408 164.51944 37119 ft 554 kts 120°
2026-05-06 02:28 -32.93019 164.60042 37120 ft 554 kts 120°
2026-05-06 02:29 -32.96625 164.68146 37123 ft 554 kts 119°
2026-05-06 02:29 -33.00227 164.76260 37123 ft 554 kts 119°
2026-05-06 02:30 -33.03799 164.84327 37128 ft 554 kts 119°
2026-05-06 02:30 -33.07388 164.92448 37129 ft 554 kts 119°
2026-05-06 02:31 -33.10975 165.00584 37133 ft 554 kts 119°
2026-05-06 02:31 -33.13945 165.07336 37135 ft 554 kts 119°
2026-05-06 02:32 -33.18120 165.16848 37135 ft 553 kts 119°
2026-05-06 02:32 -33.21659 165.24930 37139 ft 553 kts 119°
2026-05-06 02:33 -33.24613 165.31692 37139 ft 552 kts 119°
2026-05-06 02:33 -33.26391 165.35767 37141 ft 552 kts 119°
2026-05-06 02:34 -33.31704 165.47973 37147 ft 552 kts 119°
2026-05-06 02:34 -33.35810 165.57436 37149 ft 551 kts 119°
2026-05-06 02:35 -33.39334 165.65577 37151 ft 551 kts 119°
2026-05-06 02:35 -33.42847 165.73714 37153 ft 551 kts 119°
2026-05-06 02:36 -33.45769 165.80493 37154 ft 551 kts 119°
2026-05-06 02:36 -33.49845 165.89975 37159 ft 551 kts 119°
2026-05-06 02:37 -33.53343 165.98133 37157 ft 550 kts 119°
2026-05-06 02:37 -33.56244 166.04911 37162 ft 550 kts 119°
2026-05-06 02:38 -33.59729 166.13073 37161 ft 550 kts 119°
2026-05-06 02:38 -33.63209 166.21242 37166 ft 549 kts 119°
2026-05-06 02:39 -33.67240 166.30729 37167 ft 549 kts 119°
2026-05-06 02:39 -33.70119 166.37520 37167 ft 549 kts 119°
2026-05-06 02:40 -33.73577 166.45695 37169 ft 549 kts 119°
2026-05-06 02:40 -33.77025 166.53867 37176 ft 548 kts 119°
2026-05-06 02:41 -33.80469 166.62048 37176 ft 548 kts 119°
2026-05-06 02:41 -33.83906 166.70229 37175 ft 548 kts 119°
2026-05-06 02:42 -33.87311 166.78357 37176 ft 548 kts 119°
2026-05-06 02:42 -33.90733 166.86544 37181 ft 547 kts 119°
2026-05-06 02:43 -33.94148 166.94733 37178 ft 547 kts 119°
2026-05-06 02:43 -33.97553 167.02918 37186 ft 547 kts 119°
2026-05-06 02:44 -34.00933 167.11062 37193 ft 547 kts 119°
2026-05-06 02:44 -34.04330 167.19266 37189 ft 546 kts 119°
2026-05-06 02:45 -34.07716 167.27463 37192 ft 546 kts 119°
2026-05-06 02:45 -34.11098 167.35671 37195 ft 546 kts 119°
2026-05-06 02:46 -34.14447 167.43819 37195 ft 546 kts 119°
2026-05-06 02:46 -34.17812 167.52024 37198 ft 545 kts 119°
2026-05-06 02:47 -34.21169 167.60231 37200 ft 545 kts 119°
2026-05-06 02:47 -34.24520 167.68441 37206 ft 544 kts 119°
2026-05-06 02:48 -34.27859 167.76645 37208 ft 543 kts 119°
2026-05-06 02:48 -34.31167 167.84789 37210 ft 543 kts 119°
2026-05-06 02:49 -34.34488 167.92987 37210 ft 542 kts 119°
2026-05-06 02:49 -34.37799 168.01181 37211 ft 542 kts 119°
2026-05-06 02:50 -34.41101 168.09373 37214 ft 541 kts 119°
2026-05-06 02:50 -34.44375 168.17513 37217 ft 541 kts 119°
2026-05-06 02:51 -34.47660 168.25701 37219 ft 540 kts 119°
2026-05-06 02:51 -34.50939 168.33894 37224 ft 540 kts 119°
2026-05-06 02:52 -34.54205 168.42074 37228 ft 539 kts 119°
2026-05-06 02:52 -34.57463 168.50256 37227 ft 538 kts 118°
2026-05-06 02:53 -34.60686 168.58368 37227 ft 537 kts 118°
2026-05-06 02:53 -34.63925 168.66543 37228 ft 536 kts 118°
2026-05-06 02:54 -34.67149 168.74696 37228 ft 535 kts 118°
2026-05-06 02:54 -34.70367 168.82855 37230 ft 535 kts 118°
2026-05-06 02:55 -34.73573 168.91006 37236 ft 534 kts 118°
2026-05-06 02:55 -34.76752 168.99106 37237 ft 534 kts 118°
2026-05-06 02:56 -34.79945 169.07260 37239 ft 534 kts 118°
2026-05-06 02:56 -34.83130 169.15419 37238 ft 534 kts 118°
2026-05-06 02:57 -34.86310 169.23581 37241 ft 534 kts 118°
2026-05-06 02:57 -34.89490 169.31767 37250 ft 535 kts 118°
2026-05-06 02:58 -34.92644 169.39905 37248 ft 535 kts 118°
2026-05-06 02:58 -34.95820 169.48120 37251 ft 536 kts 118°
2026-05-06 02:59 -34.98994 169.56350 37253 ft 537 kts 118°
2026-05-06 02:59 -35.02165 169.64596 37257 ft 536 kts 118°
2026-05-06 03:00 -35.05304 169.72777 37257 ft 536 kts 118°
2026-05-06 03:00 -35.08453 169.81008 37260 ft 535 kts 118°
2026-05-06 03:01 -35.11599 169.89249 37269 ft 535 kts 118°
2026-05-06 03:01 -35.14729 169.97471 37263 ft 534 kts 118°
2026-05-06 03:02 -35.17833 170.05642 37259 ft 533 kts 118°
2026-05-06 03:02 -35.20946 170.13861 37266 ft 533 kts 118°
2026-05-06 03:03 -35.24053 170.22080 37276 ft 532 kts 118°
2026-05-06 03:03 -35.27150 170.30299 37265 ft 532 kts 118°
2026-05-06 03:04 -35.30241 170.38521 37287 ft 531 kts 118°
2026-05-06 03:04 -35.33302 170.46683 37292 ft 530 kts 118°
2026-05-06 03:05 -35.36370 170.54885 37272 ft 530 kts 118°
2026-05-06 03:05 -35.39431 170.63090 37277 ft 529 kts 118°
2026-05-06 03:06 -35.42478 170.71279 37281 ft 528 kts 118°
2026-05-06 03:06 -35.45497 170.79412 37284 ft 527 kts 117°
2026-05-06 03:07 -35.48527 170.87599 37288 ft 527 kts 117°
2026-05-06 03:07 -35.51550 170.95783 37291 ft 527 kts 117°
2026-05-06 03:08 -35.54569 171.03979 37289 ft 527 kts 117°
2026-05-06 03:08 -35.57540 171.12127 37294 ft 527 kts 116°
2026-05-06 03:09 -35.60290 171.20482 37292 ft 527 kts 115°
2026-05-06 03:09 -35.63031 171.28828 37294 ft 526 kts 115°
2026-05-06 03:10 -35.65780 171.37164 37301 ft 525 kts 115°
2026-05-06 03:10 -35.68520 171.45481 37299 ft 524 kts 115°
2026-05-06 03:11 -35.71235 171.53736 37301 ft 524 kts 115°
2026-05-06 03:11 -35.73961 171.62045 37304 ft 523 kts 115°
2026-05-06 03:12 -35.76674 171.70339 37307 ft 522 kts 115°
2026-05-06 03:12 -35.79378 171.78628 37308 ft 521 kts 115°
2026-05-06 03:13 -35.82052 171.86849 37309 ft 520 kts 115°
2026-05-06 03:13 -35.84738 171.95129 37311 ft 520 kts 115°
2026-05-06 03:14 -35.87413 172.03397 37316 ft 519 kts 115°
2026-05-06 03:14 -35.90079 172.11661 37316 ft 519 kts 115°
2026-05-06 03:15 -35.92723 172.19877 37318 ft 518 kts 115°
2026-05-06 03:15 -35.95373 172.28138 37318 ft 518 kts 115°
2026-05-06 03:16 -35.98016 172.36398 37318 ft 517 kts 115°
2026-05-06 03:16 -36.00628 172.44595 36824 ft 504 kts 115°
2026-05-06 03:16 -36.01902 172.48601 36208 ft 500 kts 115°
2026-05-06 03:17 -36.03171 172.52590 35485 ft 499 kts 115°
2026-05-06 03:17 -36.04414 172.56506 34956 ft 494 kts 115°
2026-05-06 03:17 -36.05663 172.60446 34418 ft 490 kts 115°
2026-05-06 03:17 -36.06900 172.64354 33828 ft 486 kts 115°
2026-05-06 03:18 -36.08122 172.68215 33273 ft 481 kts 115°
2026-05-06 03:18 -36.09333 172.72048 32765 ft 476 kts 115°
2026-05-06 03:18 -36.10529 172.75839 32242 ft 471 kts 115°
2026-05-06 03:18 -36.11711 172.79590 31730 ft 466 kts 115°
2026-05-06 03:19 -36.12882 172.83314 31217 ft 462 kts 115°
2026-05-06 03:19 -36.14039 172.86994 30714 ft 458 kts 115°
2026-05-06 03:19 -36.15172 172.90607 30178 ft 454 kts 115°
2026-05-06 03:19 -36.16308 172.94230 29637 ft 449 kts 115°
2026-05-06 03:20 -36.18537 173.01355 28640 ft 439 kts 114°
2026-05-06 03:20 -36.19630 173.04857 28144 ft 434 kts 114°
2026-05-06 03:20 -36.20712 173.08326 27663 ft 430 kts 114°
2026-05-06 03:21 -36.21784 173.11765 27150 ft 426 kts 114°
2026-05-06 03:21 -36.22843 173.15168 26663 ft 422 kts 114°
2026-05-06 03:21 -36.23892 173.18542 26153 ft 418 kts 114°
2026-05-06 03:21 -36.24918 173.21849 25695 ft 415 kts 114°
2026-05-06 03:22 -36.25947 173.25167 25193 ft 412 kts 113°
2026-05-06 03:22 -36.26970 173.28468 24702 ft 408 kts 113°
2026-05-06 03:22 -36.27984 173.31746 24204 ft 406 kts 113°
2026-05-06 03:22 -36.28989 173.34998 23694 ft 403 kts 113°
2026-05-06 03:23 -36.29984 173.38223 23152 ft 398 kts 113°
2026-05-06 03:23 -36.30966 173.41409 22688 ft 393 kts 112°
2026-05-06 03:23 -36.31935 173.44556 22214 ft 389 kts 112°
2026-05-06 03:23 -36.32895 173.47675 21736 ft 384 kts 112°
2026-05-06 03:24 -36.33826 173.50707 21269 ft 380 kts 112°
2026-05-06 03:24 -36.34762 173.53753 20810 ft 376 kts 112°
2026-05-06 03:24 -36.35688 173.56775 20346 ft 372 kts 112°
2026-05-06 03:24 -36.36604 173.59763 19894 ft 369 kts 111°
2026-05-06 03:25 -36.37511 173.62727 19449 ft 366 kts 111°
2026-05-06 03:25 -36.38409 173.65665 18980 ft 363 kts 111°
2026-05-06 03:25 -36.39358 173.68560 18538 ft 360 kts 116°
2026-05-06 03:25 -36.40730 173.71078 18122 ft 356 kts 133°
2026-05-06 03:26 -36.42459 173.73257 17668 ft 354 kts 137°
2026-05-06 03:26 -36.44227 173.75369 17220 ft 352 kts 136°
2026-05-06 03:26 -36.45985 173.77479 16785 ft 350 kts 136°
2026-05-06 03:26 -36.47726 173.79581 16355 ft 348 kts 136°
2026-05-06 03:27 -36.49453 173.81675 15926 ft 346 kts 135°
2026-05-06 03:27 -36.51173 173.83762 15488 ft 344 kts 135°
2026-05-06 03:27 -36.52876 173.85833 15069 ft 342 kts 135°
2026-05-06 03:27 -36.54545 173.87867 14715 ft 339 kts 135°
2026-05-06 03:28 -36.56251 173.89946 14351 ft 338 kts 135°
2026-05-06 03:28 -36.57901 173.91958 13933 ft 336 kts 135°
2026-05-06 03:28 -36.59553 173.93975 13583 ft 330 kts 134°
2026-05-06 03:28 -36.61188 173.95973 13138 ft 329 kts 134°
2026-05-06 03:29 -36.62817 173.97968 12710 ft 328 kts 134°
2026-05-06 03:29 -36.64441 173.99952 12294 ft 326 kts 134°
2026-05-06 03:29 -36.66057 174.01929 11880 ft 325 kts 134°
2026-05-06 03:29 -36.67662 174.03893 11470 ft 323 kts 134°
2026-05-06 03:30 -36.69260 174.05851 11067 ft 321 kts 134°
2026-05-06 03:30 -36.70822 174.07766 10758 ft 315 kts 134°
2026-05-06 03:30 -36.72351 174.09639 10639 ft 301 kts 134°
2026-05-06 03:30 -36.73812 174.11432 10535 ft 288 kts 134°
2026-05-06 03:31 -36.75233 174.13177 10310 ft 291 kts 134°
2026-05-06 03:31 -36.76706 174.14991 10063 ft 302 kts 134°
2026-05-06 03:31 -36.78207 174.16839 9830 ft 303 kts 134°
2026-05-06 03:31 -36.79694 174.18668 9475 ft 297 kts 134°
2026-05-06 03:32 -36.81147 174.20455 9178 ft 290 kts 134°
2026-05-06 03:32 -36.82555 174.22189 8850 ft 286 kts 134°
2026-05-06 03:32 -36.83959 174.23920 8543 ft 283 kts 134°
2026-05-06 03:32 -36.85358 174.25649 8253 ft 282 kts 133°
2026-05-06 03:33 -36.86749 174.27367 7971 ft 280 kts 133°
2026-05-06 03:33 -36.88132 174.29070 7663 ft 279 kts 133°
2026-05-06 03:33 -36.89508 174.30768 7372 ft 277 kts 133°
2026-05-06 03:33 -36.90876 174.32457 7069 ft 275 kts 133°
2026-05-06 03:34 -36.92233 174.34134 6765 ft 274 kts 133°
2026-05-06 03:34 -36.93563 174.35779 6466 ft 272 kts 133°
2026-05-06 03:34 -36.94906 174.37444 6172 ft 272 kts 133°
2026-05-06 03:34 -36.96245 174.39100 5876 ft 271 kts 133°
2026-05-06 03:35 -36.97580 174.40754 5539 ft 270 kts 133°
2026-05-06 03:35 -36.98895 174.42383 5224 ft 256 kts 133°
2026-05-06 03:35 -37.00108 174.43882 4979 ft 236 kts 132°
2026-05-06 03:35 -37.01231 174.45270 4786 ft 217 kts 132°
2026-05-06 03:36 -37.02262 174.46548 4703 ft 202 kts 131°
2026-05-06 03:36 -37.03217 174.47744 4614 ft 190 kts 131°
2026-05-06 03:36 -37.04130 174.48874 4532 ft 179 kts 131°
2026-05-06 03:36 -37.04985 174.49932 4389 ft 167 kts 130°
2026-05-06 03:37 -37.05790 174.50931 4162 ft 161 kts 130°
2026-05-06 03:37 -37.06577 174.51914 3839 ft 160 kts 130°
2026-05-06 03:37 -37.07260 174.52971 3557 ft 150 kts 115°
2026-05-06 03:37 -37.07598 174.54174 3462 ft 144 kts 91°
2026-05-06 03:38 -37.07526 174.55384 3414 ft 138 kts 71°
2026-05-06 03:38 -37.07263 174.56530 3333 ft 137 kts 65°
2026-05-06 03:38 -37.06973 174.57646 3220 ft 135 kts 66°
2026-05-06 03:38 -37.06680 174.58735 3072 ft 132 kts 65°
2026-05-06 03:39 -37.06381 174.59818 2866 ft 131 kts 66°
2026-05-06 03:39 -37.06084 174.60898 2686 ft 131 kts 66°
2026-05-06 03:39 -37.05791 174.61972 2518 ft 130 kts 65°
2026-05-06 03:39 -37.05499 174.63036 2351 ft 129 kts 65°
2026-05-06 03:40 -37.05206 174.64097 2166 ft 128 kts 65°
2026-05-06 03:40 -37.04917 174.65148 1994 ft 127 kts 66°
2026-05-06 03:40 -37.04631 174.66196 1819 ft 127 kts 65°
2026-05-06 03:40 -37.04340 174.67239 1656 ft 127 kts 67°
2026-05-06 03:41 -37.04057 174.68273 1471 ft 127 kts 66°
2026-05-06 03:41 -37.03771 174.69316 1292 ft 127 kts 66°
2026-05-06 03:41 -37.03472 174.70360 1136 ft 128 kts 66°
2026-05-06 03:41 -37.03187 174.71408 971 ft 126 kts 70°
2026-05-06 03:42 -37.02912 174.72450 792 ft 125 kts 69°
2026-05-06 03:42 -37.02641 174.73479 634 ft 124 kts 68°
2026-05-06 03:42 -37.02348 174.74500 460 ft 125 kts 67°
2026-05-06 03:42 -37.02068 174.75511 299 ft 123 kts 68°
2026-05-06 03:43 -37.01790 174.76528 162 ft 124 kts 66°
2026-05-06 03:43 -37.01507 174.77536 49 ft 124 kts 67°
2026-05-06 03:43 -37.01249 174.78456 32 ft 88 kts 71°
2026-05-06 03:43 -37.01113 174.78959 32 ft 52 kts 71°
2026-05-06 03:44 -37.01016 174.79312 32 ft 28 kts 71°
2026-05-06 03:44 -37.00973 174.79465 32 ft 16 kts 70°
2026-05-06 03:44 -37.00902 174.79592 32 ft 20 kts 45°
2026-05-06 03:44 -37.00827 174.79677 32 ft 14 kts 41°
2026-05-06 03:45 -37.00795 174.79707 32 ft 0 kts 37°
2026-05-06 03:45 -37.00790 174.79711 32 ft 2 kts 34°
2026-05-06 03:45 -37.00772 174.79717 32 ft 2 kts
2026-05-06 03:46 -37.00764 174.79717 32 ft 1 kts 359°
2026-05-06 03:46 -37.00756 174.79716 32 ft 0 kts 356°
2026-05-06 03:46 -37.00749 174.79715 32 ft 0 kts 355°
2026-05-06 03:46 -37.00748 174.79715 32 ft 0 kts 355°
2026-05-06 03:47 -37.00746 174.79715 32 ft 1 kts 355°
2026-05-06 03:48 -37.00729 174.79712 32 ft 7 kts 352°
2026-05-06 03:48 -37.00660 174.79686 32 ft 10 kts 324°
2026-05-06 03:48 -37.00652 174.79614 32 ft 9 kts 258°
2026-05-06 03:48 -37.00667 174.79553 32 ft 7 kts 252°
2026-05-06 03:49 -37.00687 174.79479 32 ft 12 kts 250°
2026-05-06 03:49 -37.00720 174.79364 32 ft 17 kts 251°
2026-05-06 03:49 -37.00760 174.79216 32 ft 13 kts 251°
2026-05-06 03:49 -37.00794 174.79094 32 ft 15 kts 250°
2026-05-06 03:50 -37.00831 174.78960 32 ft 17 kts 251°
2026-05-06 03:50 -37.00872 174.78811 32 ft 18 kts 252°
2026-05-06 03:50 -37.00910 174.78671 32 ft 16 kts 251°
2026-05-06 03:50 -37.00942 174.78558 32 ft 9 kts 251°
2026-05-06 03:51 -37.00969 174.78459 32 ft 14 kts 251°
2026-05-06 03:51 -37.00992 174.78364 32 ft 12 kts 256°
2026-05-06 03:51 -37.00993 174.78272 31 ft 9 kts 292°
2026-05-06 03:51 -37.00950 174.78196 31 ft 11 kts 303°
2026-05-06 03:52 -37.00917 174.78123 32 ft 11 kts 299°
2026-05-06 03:52 -37.00869 174.78047 31 ft 10 kts 326°
2026-05-06 03:52 -37.00804 174.78011 32 ft 9 kts 341°
2026-05-06 03:52 -37.00747 174.78012 32 ft 4 kts 17°
2026-05-06 03:53 -37.00744 174.78013 32 ft 0 kts 18°
2026-05-06 03:53 -37.00717 174.78027 32 ft 9 kts 22°
2026-05-06 03:53 -37.00652 174.78050 32 ft 12 kts
2026-05-06 03:53 -37.00593 174.78006 32 ft 11 kts 295°
2026-05-06 03:54 -37.00606 174.77894 32 ft 16 kts 251°
2026-05-06 03:54 -37.00636 174.77785 32 ft 9 kts 251°
2026-05-06 03:54 -37.00625 174.77739 32 ft 6 kts 319°
2026-05-06 03:54 -37.00578 174.77713 32 ft 1 kts 340°
2026-05-06 03:55 -37.00557 174.77703 32 ft 5 kts 340°
2026-05-06 03:55 -37.00542 174.77697 32 ft 0 kts 341°